<?xml version="1.0" encoding="UTF-8" standalone="no" ?>
<gpx xmlns="http://www.topografix.com/GPX/1/1" creator="Cyclopedia.no" version="1.1" xmlns:xsi="http://www.w3.org/2001/XMLSchema-instance" xsi:schemaLocation="http://www.topografix.com/GPX/1/1 http://www.topografix.com/GPX/1/1/gpx.xsd">
	<metadata>
		<link href="http://www.cyclopedia.no"><text>Cyclopedia.no</text></link>
		<time>2026-05-06T16:05:52Z</time>	</metadata>
	<wpt lat="58.109232" lon="6.56771499999999"><ele>5</ele><time>0001-01-01T00:00:00Z</time><name>Start</name></wpt>
	<wpt lat="58.099448" lon="6.83398800000001"><ele>23</ele><time>0001-01-01T00:00:00Z</time><name>Farsund</name></wpt>
	<wpt lat="58.157404" lon="7.094234"><ele>16</ele><time>0001-01-01T00:00:00Z</time><name>Lyngdal</name></wpt>
	<wpt lat="58.263189" lon="7.20320899999999"><ele>57</ele><time>0001-01-01T00:00:00Z</time><name>Kvås</name></wpt>
	<wpt lat="58.284723" lon="7.36430799999999"><ele>90</ele><time>0001-01-01T00:00:00Z</time><name>Konsmo</name></wpt>
	<wpt lat="58.250734" lon="7.516862"><ele>62</ele><time>0001-01-01T00:00:00Z</time><name>Laudal</name></wpt>
	<wpt lat="58.155645" lon="7.83543299999999"><ele>15</ele><time>0001-01-01T00:00:00Z</time><name>Nodeland</name></wpt>
	<wpt lat="58.147244" lon="7.98620199999999"><ele>4</ele><time>0001-01-01T00:00:00Z</time><name>Kristiansand</name></wpt>
	<trk>
		<name>Lista - Konsmo - Kristiansand</name>
		<trkseg>
				<trkpt lat="58.10923" lon="6.56771">
					<ele>5</ele>
					<time>0001-01-01T00:00:00Z</time>
				</trkpt>
				<trkpt lat="58.10920" lon="6.56773">
					<ele>4</ele>
					<time>0001-01-01T00:00:00Z</time>
				</trkpt>
				<trkpt lat="58.10907" lon="6.56782">
					<ele>4</ele>
					<time>0001-01-01T00:00:00Z</time>
				</trkpt>
				<trkpt lat="58.10903" lon="6.56790">
					<ele>4</ele>
					<time>0001-01-01T00:00:00Z</time>
				</trkpt>
				<trkpt lat="58.10902" lon="6.56794">
					<ele>4</ele>
					<time>0001-01-01T00:00:00Z</time>
				</trkpt>
				<trkpt lat="58.10901" lon="6.56824">
					<ele>3</ele>
					<time>0001-01-01T00:00:00Z</time>
				</trkpt>
				<trkpt lat="58.10903" lon="6.56848">
					<ele>2</ele>
					<time>0001-01-01T00:00:00Z</time>
				</trkpt>
				<trkpt lat="58.10909" lon="6.56868">
					<ele>1</ele>
					<time>0001-01-01T00:00:00Z</time>
				</trkpt>
				<trkpt lat="58.10909" lon="6.56899">
					<ele>1</ele>
					<time>0001-01-01T00:00:00Z</time>
				</trkpt>
				<trkpt lat="58.10901" lon="6.56921">
					<ele>1</ele>
					<time>0001-01-01T00:00:00Z</time>
				</trkpt>
				<trkpt lat="58.10895" lon="6.56950">
					<ele>1</ele>
					<time>0001-01-01T00:00:00Z</time>
				</trkpt>
				<trkpt lat="58.10893" lon="6.56969">
					<ele>1</ele>
					<time>0001-01-01T00:00:00Z</time>
				</trkpt>
				<trkpt lat="58.10890" lon="6.56990">
					<ele>1</ele>
					<time>0001-01-01T00:00:00Z</time>
				</trkpt>
				<trkpt lat="58.10890" lon="6.57001">
					<ele>2</ele>
					<time>0001-01-01T00:00:00Z</time>
				</trkpt>
				<trkpt lat="58.10890" lon="6.57002">
					<ele>1</ele>
					<time>0001-01-01T00:00:00Z</time>
				</trkpt>
				<trkpt lat="58.10892" lon="6.57054">
					<ele>0</ele>
					<time>0001-01-01T00:00:00Z</time>
				</trkpt>
				<trkpt lat="58.10908" lon="6.57343">
					<ele>0</ele>
					<time>0001-01-01T00:00:00Z</time>
				</trkpt>
				<trkpt lat="58.10900" lon="6.57585">
					<ele>0</ele>
					<time>0001-01-01T00:00:00Z</time>
				</trkpt>
				<trkpt lat="58.10875" lon="6.57680">
					<ele>0</ele>
					<time>0001-01-01T00:00:00Z</time>
				</trkpt>
				<trkpt lat="58.10858" lon="6.57709">
					<ele>0</ele>
					<time>0001-01-01T00:00:00Z</time>
				</trkpt>
				<trkpt lat="58.10695" lon="6.57909">
					<ele>0</ele>
					<time>0001-01-01T00:00:00Z</time>
				</trkpt>
				<trkpt lat="58.10662" lon="6.57966">
					<ele>0</ele>
					<time>0001-01-01T00:00:00Z</time>
				</trkpt>
				<trkpt lat="58.10620" lon="6.58123">
					<ele>1</ele>
					<time>0001-01-01T00:00:00Z</time>
				</trkpt>
				<trkpt lat="58.10598" lon="6.58174">
					<ele>1</ele>
					<time>0001-01-01T00:00:00Z</time>
				</trkpt>
				<trkpt lat="58.10508" lon="6.58323">
					<ele>6</ele>
					<time>0001-01-01T00:00:00Z</time>
				</trkpt>
				<trkpt lat="58.10409" lon="6.58431">
					<ele>10</ele>
					<time>0001-01-01T00:00:00Z</time>
				</trkpt>
				<trkpt lat="58.10316" lon="6.58484">
					<ele>12</ele>
					<time>0001-01-01T00:00:00Z</time>
				</trkpt>
				<trkpt lat="58.10246" lon="6.58494">
					<ele>10</ele>
					<time>0001-01-01T00:00:00Z</time>
				</trkpt>
				<trkpt lat="58.10218" lon="6.58518">
					<ele>7</ele>
					<time>0001-01-01T00:00:00Z</time>
				</trkpt>
				<trkpt lat="58.10204" lon="6.58533">
					<ele>5</ele>
					<time>0001-01-01T00:00:00Z</time>
				</trkpt>
				<trkpt lat="58.10163" lon="6.58600">
					<ele>3</ele>
					<time>0001-01-01T00:00:00Z</time>
				</trkpt>
				<trkpt lat="58.10010" lon="6.58687">
					<ele>2</ele>
					<time>0001-01-01T00:00:00Z</time>
				</trkpt>
				<trkpt lat="58.09871" lon="6.58765">
					<ele>1</ele>
					<time>0001-01-01T00:00:00Z</time>
				</trkpt>
				<trkpt lat="58.09849" lon="6.58801">
					<ele>1</ele>
					<time>0001-01-01T00:00:00Z</time>
				</trkpt>
				<trkpt lat="58.09797" lon="6.58958">
					<ele>1</ele>
					<time>0001-01-01T00:00:00Z</time>
				</trkpt>
				<trkpt lat="58.09705" lon="6.59229">
					<ele>1</ele>
					<time>0001-01-01T00:00:00Z</time>
				</trkpt>
				<trkpt lat="58.09549" lon="6.59679">
					<ele>1</ele>
					<time>0001-01-01T00:00:00Z</time>
				</trkpt>
				<trkpt lat="58.09454" lon="6.59965">
					<ele>3</ele>
					<time>0001-01-01T00:00:00Z</time>
				</trkpt>
				<trkpt lat="58.09369" lon="6.60279">
					<ele>2</ele>
					<time>0001-01-01T00:00:00Z</time>
				</trkpt>
				<trkpt lat="58.09250" lon="6.60714">
					<ele>1</ele>
					<time>0001-01-01T00:00:00Z</time>
				</trkpt>
				<trkpt lat="58.09159" lon="6.61048">
					<ele>4</ele>
					<time>0001-01-01T00:00:00Z</time>
				</trkpt>
				<trkpt lat="58.09077" lon="6.61402">
					<ele>4</ele>
					<time>0001-01-01T00:00:00Z</time>
				</trkpt>
				<trkpt lat="58.08994" lon="6.61686">
					<ele>3</ele>
					<time>0001-01-01T00:00:00Z</time>
				</trkpt>
				<trkpt lat="58.08872" lon="6.62039">
					<ele>3</ele>
					<time>0001-01-01T00:00:00Z</time>
				</trkpt>
				<trkpt lat="58.08784" lon="6.62346">
					<ele>2</ele>
					<time>0001-01-01T00:00:00Z</time>
				</trkpt>
				<trkpt lat="58.08713" lon="6.62751">
					<ele>4</ele>
					<time>0001-01-01T00:00:00Z</time>
				</trkpt>
				<trkpt lat="58.08647" lon="6.63176">
					<ele>6</ele>
					<time>0001-01-01T00:00:00Z</time>
				</trkpt>
				<trkpt lat="58.08553" lon="6.63575">
					<ele>7</ele>
					<time>0001-01-01T00:00:00Z</time>
				</trkpt>
				<trkpt lat="58.08430" lon="6.63978">
					<ele>7</ele>
					<time>0001-01-01T00:00:00Z</time>
				</trkpt>
				<trkpt lat="58.08327" lon="6.64290">
					<ele>9</ele>
					<time>0001-01-01T00:00:00Z</time>
				</trkpt>
				<trkpt lat="58.08247" lon="6.64538">
					<ele>9</ele>
					<time>0001-01-01T00:00:00Z</time>
				</trkpt>
				<trkpt lat="58.08179" lon="6.64798">
					<ele>8</ele>
					<time>0001-01-01T00:00:00Z</time>
				</trkpt>
				<trkpt lat="58.08169" lon="6.64854">
					<ele>8</ele>
					<time>0001-01-01T00:00:00Z</time>
				</trkpt>
				<trkpt lat="58.08178" lon="6.64986">
					<ele>6</ele>
					<time>0001-01-01T00:00:00Z</time>
				</trkpt>
				<trkpt lat="58.08266" lon="6.65325">
					<ele>4</ele>
					<time>0001-01-01T00:00:00Z</time>
				</trkpt>
				<trkpt lat="58.08343" lon="6.65585">
					<ele>4</ele>
					<time>0001-01-01T00:00:00Z</time>
				</trkpt>
				<trkpt lat="58.08467" lon="6.65893">
					<ele>4</ele>
					<time>0001-01-01T00:00:00Z</time>
				</trkpt>
				<trkpt lat="58.08549" lon="6.66162">
					<ele>6</ele>
					<time>0001-01-01T00:00:00Z</time>
				</trkpt>
				<trkpt lat="58.08616" lon="6.66472">
					<ele>7</ele>
					<time>0001-01-01T00:00:00Z</time>
				</trkpt>
				<trkpt lat="58.08693" lon="6.66722">
					<ele>7</ele>
					<time>0001-01-01T00:00:00Z</time>
				</trkpt>
				<trkpt lat="58.08797" lon="6.66967">
					<ele>9</ele>
					<time>0001-01-01T00:00:00Z</time>
				</trkpt>
				<trkpt lat="58.08904" lon="6.67232">
					<ele>13</ele>
					<time>0001-01-01T00:00:00Z</time>
				</trkpt>
				<trkpt lat="58.09006" lon="6.67528">
					<ele>16</ele>
					<time>0001-01-01T00:00:00Z</time>
				</trkpt>
				<trkpt lat="58.09092" lon="6.67776">
					<ele>18</ele>
					<time>0001-01-01T00:00:00Z</time>
				</trkpt>
				<trkpt lat="58.09159" lon="6.67978">
					<ele>16</ele>
					<time>0001-01-01T00:00:00Z</time>
				</trkpt>
				<trkpt lat="58.09259" lon="6.68218">
					<ele>12</ele>
					<time>0001-01-01T00:00:00Z</time>
				</trkpt>
				<trkpt lat="58.09357" lon="6.68390">
					<ele>11</ele>
					<time>0001-01-01T00:00:00Z</time>
				</trkpt>
				<trkpt lat="58.09468" lon="6.68626">
					<ele>10</ele>
					<time>0001-01-01T00:00:00Z</time>
				</trkpt>
				<trkpt lat="58.09554" lon="6.68779">
					<ele>11</ele>
					<time>0001-01-01T00:00:00Z</time>
				</trkpt>
				<trkpt lat="58.09621" lon="6.68867">
					<ele>11</ele>
					<time>0001-01-01T00:00:00Z</time>
				</trkpt>
				<trkpt lat="58.09674" lon="6.68936">
					<ele>10</ele>
					<time>0001-01-01T00:00:00Z</time>
				</trkpt>
				<trkpt lat="58.09733" lon="6.69009">
					<ele>7</ele>
					<time>0001-01-01T00:00:00Z</time>
				</trkpt>
				<trkpt lat="58.09749" lon="6.69024">
					<ele>6</ele>
					<time>0001-01-01T00:00:00Z</time>
				</trkpt>
				<trkpt lat="58.09756" lon="6.69040">
					<ele>6</ele>
					<time>0001-01-01T00:00:00Z</time>
				</trkpt>
				<trkpt lat="58.09770" lon="6.69076">
					<ele>6</ele>
					<time>0001-01-01T00:00:00Z</time>
				</trkpt>
				<trkpt lat="58.09804" lon="6.69159">
					<ele>6</ele>
					<time>0001-01-01T00:00:00Z</time>
				</trkpt>
				<trkpt lat="58.09820" lon="6.69186">
					<ele>6</ele>
					<time>0001-01-01T00:00:00Z</time>
				</trkpt>
				<trkpt lat="58.09820" lon="6.69188">
					<ele>6</ele>
					<time>0001-01-01T00:00:00Z</time>
				</trkpt>
				<trkpt lat="58.09817" lon="6.69192">
					<ele>5</ele>
					<time>0001-01-01T00:00:00Z</time>
				</trkpt>
				<trkpt lat="58.09816" lon="6.69181">
					<ele>3</ele>
					<time>0001-01-01T00:00:00Z</time>
				</trkpt>
				<trkpt lat="58.09810" lon="6.69166">
					<ele>3</ele>
					<time>0001-01-01T00:00:00Z</time>
				</trkpt>
				<trkpt lat="58.09806" lon="6.69167">
					<ele>3</ele>
					<time>0001-01-01T00:00:00Z</time>
				</trkpt>
				<trkpt lat="58.09809" lon="6.69174">
					<ele>4</ele>
					<time>0001-01-01T00:00:00Z</time>
				</trkpt>
				<trkpt lat="58.09858" lon="6.69290">
					<ele>6</ele>
					<time>0001-01-01T00:00:00Z</time>
				</trkpt>
				<trkpt lat="58.09895" lon="6.69432">
					<ele>4</ele>
					<time>0001-01-01T00:00:00Z</time>
				</trkpt>
				<trkpt lat="58.09968" lon="6.69544">
					<ele>3</ele>
					<time>0001-01-01T00:00:00Z</time>
				</trkpt>
				<trkpt lat="58.09973" lon="6.69556">
					<ele>3</ele>
					<time>0001-01-01T00:00:00Z</time>
				</trkpt>
				<trkpt lat="58.10073" lon="6.69808">
					<ele>6</ele>
					<time>0001-01-01T00:00:00Z</time>
				</trkpt>
				<trkpt lat="58.10094" lon="6.69883">
					<ele>8</ele>
					<time>0001-01-01T00:00:00Z</time>
				</trkpt>
				<trkpt lat="58.10095" lon="6.69901">
					<ele>8</ele>
					<time>0001-01-01T00:00:00Z</time>
				</trkpt>
				<trkpt lat="58.10088" lon="6.70174">
					<ele>11</ele>
					<time>0001-01-01T00:00:00Z</time>
				</trkpt>
				<trkpt lat="58.10072" lon="6.70255">
					<ele>13</ele>
					<time>0001-01-01T00:00:00Z</time>
				</trkpt>
				<trkpt lat="58.10016" lon="6.70449">
					<ele>15</ele>
					<time>0001-01-01T00:00:00Z</time>
				</trkpt>
				<trkpt lat="58.10014" lon="6.70614">
					<ele>15</ele>
					<time>0001-01-01T00:00:00Z</time>
				</trkpt>
				<trkpt lat="58.10020" lon="6.70824">
					<ele>16</ele>
					<time>0001-01-01T00:00:00Z</time>
				</trkpt>
				<trkpt lat="58.09991" lon="6.71033">
					<ele>12</ele>
					<time>0001-01-01T00:00:00Z</time>
				</trkpt>
				<trkpt lat="58.09969" lon="6.71239">
					<ele>9</ele>
					<time>0001-01-01T00:00:00Z</time>
				</trkpt>
				<trkpt lat="58.09993" lon="6.71436">
					<ele>11</ele>
					<time>0001-01-01T00:00:00Z</time>
				</trkpt>
				<trkpt lat="58.10023" lon="6.71599">
					<ele>14</ele>
					<time>0001-01-01T00:00:00Z</time>
				</trkpt>
				<trkpt lat="58.10020" lon="6.71624">
					<ele>15</ele>
					<time>0001-01-01T00:00:00Z</time>
				</trkpt>
				<trkpt lat="58.10019" lon="6.71628">
					<ele>15</ele>
					<time>0001-01-01T00:00:00Z</time>
				</trkpt>
				<trkpt lat="58.10017" lon="6.71599">
					<ele>13</ele>
					<time>0001-01-01T00:00:00Z</time>
				</trkpt>
				<trkpt lat="58.10020" lon="6.71574">
					<ele>13</ele>
					<time>0001-01-01T00:00:00Z</time>
				</trkpt>
				<trkpt lat="58.10032" lon="6.71763">
					<ele>13</ele>
					<time>0001-01-01T00:00:00Z</time>
				</trkpt>
				<trkpt lat="58.10033" lon="6.72089">
					<ele>9</ele>
					<time>0001-01-01T00:00:00Z</time>
				</trkpt>
				<trkpt lat="58.10027" lon="6.72364">
					<ele>11</ele>
					<time>0001-01-01T00:00:00Z</time>
				</trkpt>
				<trkpt lat="58.09988" lon="6.72594">
					<ele>17</ele>
					<time>0001-01-01T00:00:00Z</time>
				</trkpt>
				<trkpt lat="58.09924" lon="6.72774">
					<ele>22</ele>
					<time>0001-01-01T00:00:00Z</time>
				</trkpt>
				<trkpt lat="58.09813" lon="6.72949">
					<ele>20</ele>
					<time>0001-01-01T00:00:00Z</time>
				</trkpt>
				<trkpt lat="58.09668" lon="6.73134">
					<ele>16</ele>
					<time>0001-01-01T00:00:00Z</time>
				</trkpt>
				<trkpt lat="58.09536" lon="6.73304">
					<ele>14</ele>
					<time>0001-01-01T00:00:00Z</time>
				</trkpt>
				<trkpt lat="58.09445" lon="6.73460">
					<ele>13</ele>
					<time>0001-01-01T00:00:00Z</time>
				</trkpt>
				<trkpt lat="58.09397" lon="6.73649">
					<ele>12</ele>
					<time>0001-01-01T00:00:00Z</time>
				</trkpt>
				<trkpt lat="58.09395" lon="6.73845">
					<ele>13</ele>
					<time>0001-01-01T00:00:00Z</time>
				</trkpt>
				<trkpt lat="58.09440" lon="6.74032">
					<ele>14</ele>
					<time>0001-01-01T00:00:00Z</time>
				</trkpt>
				<trkpt lat="58.09520" lon="6.74233">
					<ele>9</ele>
					<time>0001-01-01T00:00:00Z</time>
				</trkpt>
				<trkpt lat="58.09574" lon="6.74359">
					<ele>7</ele>
					<time>0001-01-01T00:00:00Z</time>
				</trkpt>
				<trkpt lat="58.09620" lon="6.74430">
					<ele>5</ele>
					<time>0001-01-01T00:00:00Z</time>
				</trkpt>
				<trkpt lat="58.09657" lon="6.74467">
					<ele>4</ele>
					<time>0001-01-01T00:00:00Z</time>
				</trkpt>
				<trkpt lat="58.09744" lon="6.74543">
					<ele>2</ele>
					<time>0001-01-01T00:00:00Z</time>
				</trkpt>
				<trkpt lat="58.09820" lon="6.74667">
					<ele>2</ele>
					<time>0001-01-01T00:00:00Z</time>
				</trkpt>
				<trkpt lat="58.09878" lon="6.74928">
					<ele>6</ele>
					<time>0001-01-01T00:00:00Z</time>
				</trkpt>
				<trkpt lat="58.09930" lon="6.75258">
					<ele>10</ele>
					<time>0001-01-01T00:00:00Z</time>
				</trkpt>
				<trkpt lat="58.09966" lon="6.75496">
					<ele>6</ele>
					<time>0001-01-01T00:00:00Z</time>
				</trkpt>
				<trkpt lat="58.09971" lon="6.75723">
					<ele>4</ele>
					<time>0001-01-01T00:00:00Z</time>
				</trkpt>
				<trkpt lat="58.09964" lon="6.76018">
					<ele>4</ele>
					<time>0001-01-01T00:00:00Z</time>
				</trkpt>
				<trkpt lat="58.09909" lon="6.76276">
					<ele>4</ele>
					<time>0001-01-01T00:00:00Z</time>
				</trkpt>
				<trkpt lat="58.09894" lon="6.76458">
					<ele>8</ele>
					<time>0001-01-01T00:00:00Z</time>
				</trkpt>
				<trkpt lat="58.09904" lon="6.76641">
					<ele>12</ele>
					<time>0001-01-01T00:00:00Z</time>
				</trkpt>
				<trkpt lat="58.09907" lon="6.76810">
					<ele>12</ele>
					<time>0001-01-01T00:00:00Z</time>
				</trkpt>
				<trkpt lat="58.09881" lon="6.76959">
					<ele>8</ele>
					<time>0001-01-01T00:00:00Z</time>
				</trkpt>
				<trkpt lat="58.09847" lon="6.77164">
					<ele>4</ele>
					<time>0001-01-01T00:00:00Z</time>
				</trkpt>
				<trkpt lat="58.09815" lon="6.77442">
					<ele>5</ele>
					<time>0001-01-01T00:00:00Z</time>
				</trkpt>
				<trkpt lat="58.09834" lon="6.77641">
					<ele>5</ele>
					<time>0001-01-01T00:00:00Z</time>
				</trkpt>
				<trkpt lat="58.09841" lon="6.77720">
					<ele>4</ele>
					<time>0001-01-01T00:00:00Z</time>
				</trkpt>
				<trkpt lat="58.09810" lon="6.77875">
					<ele>4</ele>
					<time>0001-01-01T00:00:00Z</time>
				</trkpt>
				<trkpt lat="58.09734" lon="6.78070">
					<ele>3</ele>
					<time>0001-01-01T00:00:00Z</time>
				</trkpt>
				<trkpt lat="58.09609" lon="6.78273">
					<ele>3</ele>
					<time>0001-01-01T00:00:00Z</time>
				</trkpt>
				<trkpt lat="58.09549" lon="6.78417">
					<ele>3</ele>
					<time>0001-01-01T00:00:00Z</time>
				</trkpt>
				<trkpt lat="58.09473" lon="6.78619">
					<ele>4</ele>
					<time>0001-01-01T00:00:00Z</time>
				</trkpt>
				<trkpt lat="58.09448" lon="6.78786">
					<ele>4</ele>
					<time>0001-01-01T00:00:00Z</time>
				</trkpt>
				<trkpt lat="58.09472" lon="6.79065">
					<ele>6</ele>
					<time>0001-01-01T00:00:00Z</time>
				</trkpt>
				<trkpt lat="58.09517" lon="6.79287">
					<ele>8</ele>
					<time>0001-01-01T00:00:00Z</time>
				</trkpt>
				<trkpt lat="58.09556" lon="6.79635">
					<ele>10</ele>
					<time>0001-01-01T00:00:00Z</time>
				</trkpt>
				<trkpt lat="58.09576" lon="6.79895">
					<ele>12</ele>
					<time>0001-01-01T00:00:00Z</time>
				</trkpt>
				<trkpt lat="58.09570" lon="6.79972">
					<ele>13</ele>
					<time>0001-01-01T00:00:00Z</time>
				</trkpt>
				<trkpt lat="58.09549" lon="6.80039">
					<ele>15</ele>
					<time>0001-01-01T00:00:00Z</time>
				</trkpt>
				<trkpt lat="58.09539" lon="6.80071">
					<ele>15</ele>
					<time>0001-01-01T00:00:00Z</time>
				</trkpt>
				<trkpt lat="58.09538" lon="6.80121">
					<ele>12</ele>
					<time>0001-01-01T00:00:00Z</time>
				</trkpt>
				<trkpt lat="58.09554" lon="6.80335">
					<ele>11</ele>
					<time>0001-01-01T00:00:00Z</time>
				</trkpt>
				<trkpt lat="58.09564" lon="6.80375">
					<ele>12</ele>
					<time>0001-01-01T00:00:00Z</time>
				</trkpt>
				<trkpt lat="58.09592" lon="6.80435">
					<ele>11</ele>
					<time>0001-01-01T00:00:00Z</time>
				</trkpt>
				<trkpt lat="58.09591" lon="6.80453">
					<ele>10</ele>
					<time>0001-01-01T00:00:00Z</time>
				</trkpt>
				<trkpt lat="58.09584" lon="6.80489">
					<ele>9</ele>
					<time>0001-01-01T00:00:00Z</time>
				</trkpt>
				<trkpt lat="58.09578" lon="6.80527">
					<ele>8</ele>
					<time>0001-01-01T00:00:00Z</time>
				</trkpt>
				<trkpt lat="58.09580" lon="6.80574">
					<ele>3</ele>
					<time>0001-01-01T00:00:00Z</time>
				</trkpt>
				<trkpt lat="58.09580" lon="6.80764">
					<ele>3</ele>
					<time>0001-01-01T00:00:00Z</time>
				</trkpt>
				<trkpt lat="58.09574" lon="6.80847">
					<ele>4</ele>
					<time>0001-01-01T00:00:00Z</time>
				</trkpt>
				<trkpt lat="58.09559" lon="6.80901">
					<ele>5</ele>
					<time>0001-01-01T00:00:00Z</time>
				</trkpt>
				<trkpt lat="58.09514" lon="6.80989">
					<ele>11</ele>
					<time>0001-01-01T00:00:00Z</time>
				</trkpt>
				<trkpt lat="58.09477" lon="6.81088">
					<ele>15</ele>
					<time>0001-01-01T00:00:00Z</time>
				</trkpt>
				<trkpt lat="58.09490" lon="6.81186">
					<ele>20</ele>
					<time>0001-01-01T00:00:00Z</time>
				</trkpt>
				<trkpt lat="58.09539" lon="6.81262">
					<ele>25</ele>
					<time>0001-01-01T00:00:00Z</time>
				</trkpt>
				<trkpt lat="58.09615" lon="6.81371">
					<ele>24</ele>
					<time>0001-01-01T00:00:00Z</time>
				</trkpt>
				<trkpt lat="58.09703" lon="6.81509">
					<ele>19</ele>
					<time>0001-01-01T00:00:00Z</time>
				</trkpt>
				<trkpt lat="58.09809" lon="6.81720">
					<ele>15</ele>
					<time>0001-01-01T00:00:00Z</time>
				</trkpt>
				<trkpt lat="58.09844" lon="6.81915">
					<ele>13</ele>
					<time>0001-01-01T00:00:00Z</time>
				</trkpt>
				<trkpt lat="58.09891" lon="6.82221">
					<ele>13</ele>
					<time>0001-01-01T00:00:00Z</time>
				</trkpt>
				<trkpt lat="58.09918" lon="6.82392">
					<ele>19</ele>
					<time>0001-01-01T00:00:00Z</time>
				</trkpt>
				<trkpt lat="58.09935" lon="6.82578">
					<ele>21</ele>
					<time>0001-01-01T00:00:00Z</time>
				</trkpt>
				<trkpt lat="58.09941" lon="6.82618">
					<ele>21</ele>
					<time>0001-01-01T00:00:00Z</time>
				</trkpt>
				<trkpt lat="58.09990" lon="6.82772">
					<ele>18</ele>
					<time>0001-01-01T00:00:00Z</time>
				</trkpt>
				<trkpt lat="58.10003" lon="6.82965">
					<ele>21</ele>
					<time>0001-01-01T00:00:00Z</time>
				</trkpt>
				<trkpt lat="58.09971" lon="6.83203">
					<ele>20</ele>
					<time>0001-01-01T00:00:00Z</time>
				</trkpt>
				<trkpt lat="58.09945" lon="6.83399">
					<ele>23</ele>
					<time>0001-01-01T00:00:00Z</time>
				</trkpt>
				<trkpt lat="58.09937" lon="6.83510">
					<ele>24</ele>
					<time>0001-01-01T00:00:00Z</time>
				</trkpt>
				<trkpt lat="58.09969" lon="6.83656">
					<ele>26</ele>
					<time>0001-01-01T00:00:00Z</time>
				</trkpt>
				<trkpt lat="58.10023" lon="6.83807">
					<ele>27</ele>
					<time>0001-01-01T00:00:00Z</time>
				</trkpt>
				<trkpt lat="58.10066" lon="6.83976">
					<ele>28</ele>
					<time>0001-01-01T00:00:00Z</time>
				</trkpt>
				<trkpt lat="58.10074" lon="6.84059">
					<ele>28</ele>
					<time>0001-01-01T00:00:00Z</time>
				</trkpt>
				<trkpt lat="58.10069" lon="6.84291">
					<ele>25</ele>
					<time>0001-01-01T00:00:00Z</time>
				</trkpt>
				<trkpt lat="58.10071" lon="6.84434">
					<ele>25</ele>
					<time>0001-01-01T00:00:00Z</time>
				</trkpt>
				<trkpt lat="58.10126" lon="6.84635">
					<ele>25</ele>
					<time>0001-01-01T00:00:00Z</time>
				</trkpt>
				<trkpt lat="58.10202" lon="6.84905">
					<ele>22</ele>
					<time>0001-01-01T00:00:00Z</time>
				</trkpt>
				<trkpt lat="58.10240" lon="6.85133">
					<ele>23</ele>
					<time>0001-01-01T00:00:00Z</time>
				</trkpt>
				<trkpt lat="58.10236" lon="6.85135">
					<ele>23</ele>
					<time>0001-01-01T00:00:00Z</time>
				</trkpt>
				<trkpt lat="58.10231" lon="6.85357">
					<ele>22</ele>
					<time>0001-01-01T00:00:00Z</time>
				</trkpt>
				<trkpt lat="58.10202" lon="6.85588">
					<ele>18</ele>
					<time>0001-01-01T00:00:00Z</time>
				</trkpt>
				<trkpt lat="58.10151" lon="6.85868">
					<ele>13</ele>
					<time>0001-01-01T00:00:00Z</time>
				</trkpt>
				<trkpt lat="58.10163" lon="6.86002">
					<ele>13</ele>
					<time>0001-01-01T00:00:00Z</time>
				</trkpt>
				<trkpt lat="58.10158" lon="6.86036">
					<ele>13</ele>
					<time>0001-01-01T00:00:00Z</time>
				</trkpt>
				<trkpt lat="58.10107" lon="6.86330">
					<ele>14</ele>
					<time>0001-01-01T00:00:00Z</time>
				</trkpt>
				<trkpt lat="58.10094" lon="6.86392">
					<ele>14</ele>
					<time>0001-01-01T00:00:00Z</time>
				</trkpt>
				<trkpt lat="58.10065" lon="6.86695">
					<ele>15</ele>
					<time>0001-01-01T00:00:00Z</time>
				</trkpt>
				<trkpt lat="58.10069" lon="6.86952">
					<ele>15</ele>
					<time>0001-01-01T00:00:00Z</time>
				</trkpt>
				<trkpt lat="58.10076" lon="6.87298">
					<ele>15</ele>
					<time>0001-01-01T00:00:00Z</time>
				</trkpt>
				<trkpt lat="58.10090" lon="6.87537">
					<ele>15</ele>
					<time>0001-01-01T00:00:00Z</time>
				</trkpt>
				<trkpt lat="58.10107" lon="6.87643">
					<ele>15</ele>
					<time>0001-01-01T00:00:00Z</time>
				</trkpt>
				<trkpt lat="58.10148" lon="6.87888">
					<ele>15</ele>
					<time>0001-01-01T00:00:00Z</time>
				</trkpt>
				<trkpt lat="58.10200" lon="6.88184">
					<ele>17</ele>
					<time>0001-01-01T00:00:00Z</time>
				</trkpt>
				<trkpt lat="58.10238" lon="6.88584">
					<ele>23</ele>
					<time>0001-01-01T00:00:00Z</time>
				</trkpt>
				<trkpt lat="58.10249" lon="6.88723">
					<ele>26</ele>
					<time>0001-01-01T00:00:00Z</time>
				</trkpt>
				<trkpt lat="58.10262" lon="6.88894">
					<ele>29</ele>
					<time>0001-01-01T00:00:00Z</time>
				</trkpt>
				<trkpt lat="58.10257" lon="6.88963">
					<ele>30</ele>
					<time>0001-01-01T00:00:00Z</time>
				</trkpt>
				<trkpt lat="58.10252" lon="6.89028">
					<ele>32</ele>
					<time>0001-01-01T00:00:00Z</time>
				</trkpt>
				<trkpt lat="58.10235" lon="6.89228">
					<ele>38</ele>
					<time>0001-01-01T00:00:00Z</time>
				</trkpt>
				<trkpt lat="58.10221" lon="6.89419">
					<ele>39</ele>
					<time>0001-01-01T00:00:00Z</time>
				</trkpt>
				<trkpt lat="58.10218" lon="6.89628">
					<ele>37</ele>
					<time>0001-01-01T00:00:00Z</time>
				</trkpt>
				<trkpt lat="58.10213" lon="6.89901">
					<ele>33</ele>
					<time>0001-01-01T00:00:00Z</time>
				</trkpt>
				<trkpt lat="58.10233" lon="6.90285">
					<ele>30</ele>
					<time>0001-01-01T00:00:00Z</time>
				</trkpt>
				<trkpt lat="58.10270" lon="6.90397">
					<ele>28</ele>
					<time>0001-01-01T00:00:00Z</time>
				</trkpt>
				<trkpt lat="58.10362" lon="6.90521">
					<ele>31</ele>
					<time>0001-01-01T00:00:00Z</time>
				</trkpt>
				<trkpt lat="58.10371" lon="6.90553">
					<ele>31</ele>
					<time>0001-01-01T00:00:00Z</time>
				</trkpt>
				<trkpt lat="58.10403" lon="6.90706">
					<ele>33</ele>
					<time>0001-01-01T00:00:00Z</time>
				</trkpt>
				<trkpt lat="58.10437" lon="6.90813">
					<ele>32</ele>
					<time>0001-01-01T00:00:00Z</time>
				</trkpt>
				<trkpt lat="58.10445" lon="6.90836">
					<ele>32</ele>
					<time>0001-01-01T00:00:00Z</time>
				</trkpt>
				<trkpt lat="58.10529" lon="6.91032">
					<ele>29</ele>
					<time>0001-01-01T00:00:00Z</time>
				</trkpt>
				<trkpt lat="58.10580" lon="6.91257">
					<ele>27</ele>
					<time>0001-01-01T00:00:00Z</time>
				</trkpt>
				<trkpt lat="58.10646" lon="6.91643">
					<ele>25</ele>
					<time>0001-01-01T00:00:00Z</time>
				</trkpt>
				<trkpt lat="58.10693" lon="6.91802">
					<ele>23</ele>
					<time>0001-01-01T00:00:00Z</time>
				</trkpt>
				<trkpt lat="58.10781" lon="6.92119">
					<ele>23</ele>
					<time>0001-01-01T00:00:00Z</time>
				</trkpt>
				<trkpt lat="58.10873" lon="6.92477">
					<ele>22</ele>
					<time>0001-01-01T00:00:00Z</time>
				</trkpt>
				<trkpt lat="58.10930" lon="6.92816">
					<ele>22</ele>
					<time>0001-01-01T00:00:00Z</time>
				</trkpt>
				<trkpt lat="58.10987" lon="6.93065">
					<ele>19</ele>
					<time>0001-01-01T00:00:00Z</time>
				</trkpt>
				<trkpt lat="58.11061" lon="6.93329">
					<ele>21</ele>
					<time>0001-01-01T00:00:00Z</time>
				</trkpt>
				<trkpt lat="58.11088" lon="6.93433">
					<ele>21</ele>
					<time>0001-01-01T00:00:00Z</time>
				</trkpt>
				<trkpt lat="58.11109" lon="6.93509">
					<ele>23</ele>
					<time>0001-01-01T00:00:00Z</time>
				</trkpt>
				<trkpt lat="58.11154" lon="6.93678">
					<ele>31</ele>
					<time>0001-01-01T00:00:00Z</time>
				</trkpt>
				<trkpt lat="58.11196" lon="6.93830">
					<ele>37</ele>
					<time>0001-01-01T00:00:00Z</time>
				</trkpt>
				<trkpt lat="58.11241" lon="6.94023">
					<ele>38</ele>
					<time>0001-01-01T00:00:00Z</time>
				</trkpt>
				<trkpt lat="58.11267" lon="6.94158">
					<ele>35</ele>
					<time>0001-01-01T00:00:00Z</time>
				</trkpt>
				<trkpt lat="58.11298" lon="6.94376">
					<ele>29</ele>
					<time>0001-01-01T00:00:00Z</time>
				</trkpt>
				<trkpt lat="58.11298" lon="6.94678">
					<ele>28</ele>
					<time>0001-01-01T00:00:00Z</time>
				</trkpt>
				<trkpt lat="58.11240" lon="6.95144">
					<ele>24</ele>
					<time>0001-01-01T00:00:00Z</time>
				</trkpt>
				<trkpt lat="58.11222" lon="6.95197">
					<ele>24</ele>
					<time>0001-01-01T00:00:00Z</time>
				</trkpt>
				<trkpt lat="58.11212" lon="6.95362">
					<ele>22</ele>
					<time>0001-01-01T00:00:00Z</time>
				</trkpt>
				<trkpt lat="58.11251" lon="6.95540">
					<ele>21</ele>
					<time>0001-01-01T00:00:00Z</time>
				</trkpt>
				<trkpt lat="58.11328" lon="6.95768">
					<ele>22</ele>
					<time>0001-01-01T00:00:00Z</time>
				</trkpt>
				<trkpt lat="58.11396" lon="6.96052">
					<ele>22</ele>
					<time>0001-01-01T00:00:00Z</time>
				</trkpt>
				<trkpt lat="58.11438" lon="6.96229">
					<ele>21</ele>
					<time>0001-01-01T00:00:00Z</time>
				</trkpt>
				<trkpt lat="58.11472" lon="6.96275">
					<ele>22</ele>
					<time>0001-01-01T00:00:00Z</time>
				</trkpt>
				<trkpt lat="58.11477" lon="6.96284">
					<ele>23</ele>
					<time>0001-01-01T00:00:00Z</time>
				</trkpt>
				<trkpt lat="58.11486" lon="6.96299">
					<ele>23</ele>
					<time>0001-01-01T00:00:00Z</time>
				</trkpt>
				<trkpt lat="58.11528" lon="6.96336">
					<ele>26</ele>
					<time>0001-01-01T00:00:00Z</time>
				</trkpt>
				<trkpt lat="58.11633" lon="6.96332">
					<ele>27</ele>
					<time>0001-01-01T00:00:00Z</time>
				</trkpt>
				<trkpt lat="58.11732" lon="6.96881">
					<ele>27</ele>
					<time>0001-01-01T00:00:00Z</time>
				</trkpt>
				<trkpt lat="58.11785" lon="6.97090">
					<ele>20</ele>
					<time>0001-01-01T00:00:00Z</time>
				</trkpt>
				<trkpt lat="58.11857" lon="6.97179">
					<ele>18</ele>
					<time>0001-01-01T00:00:00Z</time>
				</trkpt>
				<trkpt lat="58.11874" lon="6.97180">
					<ele>17</ele>
					<time>0001-01-01T00:00:00Z</time>
				</trkpt>
				<trkpt lat="58.11974" lon="6.97189">
					<ele>20</ele>
					<time>0001-01-01T00:00:00Z</time>
				</trkpt>
				<trkpt lat="58.12033" lon="6.97321">
					<ele>20</ele>
					<time>0001-01-01T00:00:00Z</time>
				</trkpt>
				<trkpt lat="58.12064" lon="6.97369">
					<ele>20</ele>
					<time>0001-01-01T00:00:00Z</time>
				</trkpt>
				<trkpt lat="58.12137" lon="6.97366">
					<ele>18</ele>
					<time>0001-01-01T00:00:00Z</time>
				</trkpt>
				<trkpt lat="58.12164" lon="6.97373">
					<ele>17</ele>
					<time>0001-01-01T00:00:00Z</time>
				</trkpt>
				<trkpt lat="58.12205" lon="6.97399">
					<ele>17</ele>
					<time>0001-01-01T00:00:00Z</time>
				</trkpt>
				<trkpt lat="58.12241" lon="6.97413">
					<ele>15</ele>
					<time>0001-01-01T00:00:00Z</time>
				</trkpt>
				<trkpt lat="58.12272" lon="6.97498">
					<ele>15</ele>
					<time>0001-01-01T00:00:00Z</time>
				</trkpt>
				<trkpt lat="58.12268" lon="6.97575">
					<ele>15</ele>
					<time>0001-01-01T00:00:00Z</time>
				</trkpt>
				<trkpt lat="58.12284" lon="6.97718">
					<ele>14</ele>
					<time>0001-01-01T00:00:00Z</time>
				</trkpt>
				<trkpt lat="58.12300" lon="6.97830">
					<ele>12</ele>
					<time>0001-01-01T00:00:00Z</time>
				</trkpt>
				<trkpt lat="58.12283" lon="6.98092">
					<ele>11</ele>
					<time>0001-01-01T00:00:00Z</time>
				</trkpt>
				<trkpt lat="58.12263" lon="6.98379">
					<ele>10</ele>
					<time>0001-01-01T00:00:00Z</time>
				</trkpt>
				<trkpt lat="58.12269" lon="6.98611">
					<ele>11</ele>
					<time>0001-01-01T00:00:00Z</time>
				</trkpt>
				<trkpt lat="58.12251" lon="6.98725">
					<ele>10</ele>
					<time>0001-01-01T00:00:00Z</time>
				</trkpt>
				<trkpt lat="58.12244" lon="6.98915">
					<ele>11</ele>
					<time>0001-01-01T00:00:00Z</time>
				</trkpt>
				<trkpt lat="58.12228" lon="6.99048">
					<ele>8</ele>
					<time>0001-01-01T00:00:00Z</time>
				</trkpt>
				<trkpt lat="58.12223" lon="6.99056">
					<ele>8</ele>
					<time>0001-01-01T00:00:00Z</time>
				</trkpt>
				<trkpt lat="58.12205" lon="6.99178">
					<ele>6</ele>
					<time>0001-01-01T00:00:00Z</time>
				</trkpt>
				<trkpt lat="58.12203" lon="6.99413">
					<ele>6</ele>
					<time>0001-01-01T00:00:00Z</time>
				</trkpt>
				<trkpt lat="58.12203" lon="6.99427">
					<ele>5</ele>
					<time>0001-01-01T00:00:00Z</time>
				</trkpt>
				<trkpt lat="58.12247" lon="6.99650">
					<ele>9</ele>
					<time>0001-01-01T00:00:00Z</time>
				</trkpt>
				<trkpt lat="58.12294" lon="6.99930">
					<ele>14</ele>
					<time>0001-01-01T00:00:00Z</time>
				</trkpt>
				<trkpt lat="58.12341" lon="7.00109">
					<ele>16</ele>
					<time>0001-01-01T00:00:00Z</time>
				</trkpt>
				<trkpt lat="58.12430" lon="7.00290">
					<ele>15</ele>
					<time>0001-01-01T00:00:00Z</time>
				</trkpt>
				<trkpt lat="58.12494" lon="7.00505">
					<ele>12</ele>
					<time>0001-01-01T00:00:00Z</time>
				</trkpt>
				<trkpt lat="58.12523" lon="7.00598">
					<ele>10</ele>
					<time>0001-01-01T00:00:00Z</time>
				</trkpt>
				<trkpt lat="58.12550" lon="7.00723">
					<ele>12</ele>
					<time>0001-01-01T00:00:00Z</time>
				</trkpt>
				<trkpt lat="58.12598" lon="7.00832">
					<ele>14</ele>
					<time>0001-01-01T00:00:00Z</time>
				</trkpt>
				<trkpt lat="58.12609" lon="7.00854">
					<ele>15</ele>
					<time>0001-01-01T00:00:00Z</time>
				</trkpt>
				<trkpt lat="58.12649" lon="7.00916">
					<ele>16</ele>
					<time>0001-01-01T00:00:00Z</time>
				</trkpt>
				<trkpt lat="58.12664" lon="7.00978">
					<ele>16</ele>
					<time>0001-01-01T00:00:00Z</time>
				</trkpt>
				<trkpt lat="58.12664" lon="7.01034">
					<ele>15</ele>
					<time>0001-01-01T00:00:00Z</time>
				</trkpt>
				<trkpt lat="58.12669" lon="7.01095">
					<ele>14</ele>
					<time>0001-01-01T00:00:00Z</time>
				</trkpt>
				<trkpt lat="58.12681" lon="7.01158">
					<ele>13</ele>
					<time>0001-01-01T00:00:00Z</time>
				</trkpt>
				<trkpt lat="58.12736" lon="7.01294">
					<ele>11</ele>
					<time>0001-01-01T00:00:00Z</time>
				</trkpt>
				<trkpt lat="58.12771" lon="7.01386">
					<ele>10</ele>
					<time>0001-01-01T00:00:00Z</time>
				</trkpt>
				<trkpt lat="58.12782" lon="7.01466">
					<ele>10</ele>
					<time>0001-01-01T00:00:00Z</time>
				</trkpt>
				<trkpt lat="58.12785" lon="7.01788">
					<ele>11</ele>
					<time>0001-01-01T00:00:00Z</time>
				</trkpt>
				<trkpt lat="58.12819" lon="7.01950">
					<ele>11</ele>
					<time>0001-01-01T00:00:00Z</time>
				</trkpt>
				<trkpt lat="58.12888" lon="7.02198">
					<ele>11</ele>
					<time>0001-01-01T00:00:00Z</time>
				</trkpt>
				<trkpt lat="58.12908" lon="7.02319">
					<ele>10</ele>
					<time>0001-01-01T00:00:00Z</time>
				</trkpt>
				<trkpt lat="58.12908" lon="7.02363">
					<ele>10</ele>
					<time>0001-01-01T00:00:00Z</time>
				</trkpt>
				<trkpt lat="58.12918" lon="7.02648">
					<ele>11</ele>
					<time>0001-01-01T00:00:00Z</time>
				</trkpt>
				<trkpt lat="58.12921" lon="7.02983">
					<ele>11</ele>
					<time>0001-01-01T00:00:00Z</time>
				</trkpt>
				<trkpt lat="58.12924" lon="7.03090">
					<ele>10</ele>
					<time>0001-01-01T00:00:00Z</time>
				</trkpt>
				<trkpt lat="58.12958" lon="7.03203">
					<ele>9</ele>
					<time>0001-01-01T00:00:00Z</time>
				</trkpt>
				<trkpt lat="58.13040" lon="7.03301">
					<ele>9</ele>
					<time>0001-01-01T00:00:00Z</time>
				</trkpt>
				<trkpt lat="58.13166" lon="7.03536">
					<ele>7</ele>
					<time>0001-01-01T00:00:00Z</time>
				</trkpt>
				<trkpt lat="58.13298" lon="7.03789">
					<ele>6</ele>
					<time>0001-01-01T00:00:00Z</time>
				</trkpt>
				<trkpt lat="58.13438" lon="7.04058">
					<ele>6</ele>
					<time>0001-01-01T00:00:00Z</time>
				</trkpt>
				<trkpt lat="58.13510" lon="7.04303">
					<ele>7</ele>
					<time>0001-01-01T00:00:00Z</time>
				</trkpt>
				<trkpt lat="58.13568" lon="7.04643">
					<ele>7</ele>
					<time>0001-01-01T00:00:00Z</time>
				</trkpt>
				<trkpt lat="58.13614" lon="7.04943">
					<ele>6</ele>
					<time>0001-01-01T00:00:00Z</time>
				</trkpt>
				<trkpt lat="58.13642" lon="7.05290">
					<ele>9</ele>
					<time>0001-01-01T00:00:00Z</time>
				</trkpt>
				<trkpt lat="58.13676" lon="7.05612">
					<ele>9</ele>
					<time>0001-01-01T00:00:00Z</time>
				</trkpt>
				<trkpt lat="58.13702" lon="7.05873">
					<ele>8</ele>
					<time>0001-01-01T00:00:00Z</time>
				</trkpt>
				<trkpt lat="58.13737" lon="7.06094">
					<ele>8</ele>
					<time>0001-01-01T00:00:00Z</time>
				</trkpt>
				<trkpt lat="58.13814" lon="7.06329">
					<ele>8</ele>
					<time>0001-01-01T00:00:00Z</time>
				</trkpt>
				<trkpt lat="58.13881" lon="7.06560">
					<ele>8</ele>
					<time>0001-01-01T00:00:00Z</time>
				</trkpt>
				<trkpt lat="58.13916" lon="7.06835">
					<ele>7</ele>
					<time>0001-01-01T00:00:00Z</time>
				</trkpt>
				<trkpt lat="58.13940" lon="7.07050">
					<ele>5</ele>
					<time>0001-01-01T00:00:00Z</time>
				</trkpt>
				<trkpt lat="58.14001" lon="7.07169">
					<ele>6</ele>
					<time>0001-01-01T00:00:00Z</time>
				</trkpt>
				<trkpt lat="58.14147" lon="7.07338">
					<ele>11</ele>
					<time>0001-01-01T00:00:00Z</time>
				</trkpt>
				<trkpt lat="58.14248" lon="7.07518">
					<ele>9</ele>
					<time>0001-01-01T00:00:00Z</time>
				</trkpt>
				<trkpt lat="58.14351" lon="7.07702">
					<ele>10</ele>
					<time>0001-01-01T00:00:00Z</time>
				</trkpt>
				<trkpt lat="58.14454" lon="7.07820">
					<ele>12</ele>
					<time>0001-01-01T00:00:00Z</time>
				</trkpt>
				<trkpt lat="58.14634" lon="7.07969">
					<ele>13</ele>
					<time>0001-01-01T00:00:00Z</time>
				</trkpt>
				<trkpt lat="58.14748" lon="7.08130">
					<ele>14</ele>
					<time>0001-01-01T00:00:00Z</time>
				</trkpt>
				<trkpt lat="58.14811" lon="7.08305">
					<ele>13</ele>
					<time>0001-01-01T00:00:00Z</time>
				</trkpt>
				<trkpt lat="58.14825" lon="7.08495">
					<ele>11</ele>
					<time>0001-01-01T00:00:00Z</time>
				</trkpt>
				<trkpt lat="58.14866" lon="7.08680">
					<ele>9</ele>
					<time>0001-01-01T00:00:00Z</time>
				</trkpt>
				<trkpt lat="58.14958" lon="7.08947">
					<ele>9</ele>
					<time>0001-01-01T00:00:00Z</time>
				</trkpt>
				<trkpt lat="58.15059" lon="7.09038">
					<ele>10</ele>
					<time>0001-01-01T00:00:00Z</time>
				</trkpt>
				<trkpt lat="58.15182" lon="7.09065">
					<ele>9</ele>
					<time>0001-01-01T00:00:00Z</time>
				</trkpt>
				<trkpt lat="58.15344" lon="7.09065">
					<ele>9</ele>
					<time>0001-01-01T00:00:00Z</time>
				</trkpt>
				<trkpt lat="58.15497" lon="7.09098">
					<ele>10</ele>
					<time>0001-01-01T00:00:00Z</time>
				</trkpt>
				<trkpt lat="58.15655" lon="7.09167">
					<ele>13</ele>
					<time>0001-01-01T00:00:00Z</time>
				</trkpt>
				<trkpt lat="58.15729" lon="7.09178">
					<ele>14</ele>
					<time>0001-01-01T00:00:00Z</time>
				</trkpt>
				<trkpt lat="58.15741" lon="7.09182">
					<ele>15</ele>
					<time>0001-01-01T00:00:00Z</time>
				</trkpt>
				<trkpt lat="58.15773" lon="7.09165">
					<ele>14</ele>
					<time>0001-01-01T00:00:00Z</time>
				</trkpt>
				<trkpt lat="58.15783" lon="7.09156">
					<ele>13</ele>
					<time>0001-01-01T00:00:00Z</time>
				</trkpt>
				<trkpt lat="58.15784" lon="7.09162">
					<ele>13</ele>
					<time>0001-01-01T00:00:00Z</time>
				</trkpt>
				<trkpt lat="58.15763" lon="7.09182">
					<ele>13</ele>
					<time>0001-01-01T00:00:00Z</time>
				</trkpt>
				<trkpt lat="58.15752" lon="7.09228">
					<ele>14</ele>
					<time>0001-01-01T00:00:00Z</time>
				</trkpt>
				<trkpt lat="58.15740" lon="7.09423">
					<ele>16</ele>
					<time>0001-01-01T00:00:00Z</time>
				</trkpt>
				<trkpt lat="58.15736" lon="7.09549">
					<ele>15</ele>
					<time>0001-01-01T00:00:00Z</time>
				</trkpt>
				<trkpt lat="58.15745" lon="7.09589">
					<ele>15</ele>
					<time>0001-01-01T00:00:00Z</time>
				</trkpt>
				<trkpt lat="58.15753" lon="7.09598">
					<ele>16</ele>
					<time>0001-01-01T00:00:00Z</time>
				</trkpt>
				<trkpt lat="58.15750" lon="7.09620">
					<ele>15</ele>
					<time>0001-01-01T00:00:00Z</time>
				</trkpt>
				<trkpt lat="58.15730" lon="7.09609">
					<ele>15</ele>
					<time>0001-01-01T00:00:00Z</time>
				</trkpt>
				<trkpt lat="58.15723" lon="7.09635">
					<ele>15</ele>
					<time>0001-01-01T00:00:00Z</time>
				</trkpt>
				<trkpt lat="58.15715" lon="7.09858">
					<ele>15</ele>
					<time>0001-01-01T00:00:00Z</time>
				</trkpt>
				<trkpt lat="58.15714" lon="7.09894">
					<ele>15</ele>
					<time>0001-01-01T00:00:00Z</time>
				</trkpt>
				<trkpt lat="58.15706" lon="7.09930">
					<ele>15</ele>
					<time>0001-01-01T00:00:00Z</time>
				</trkpt>
				<trkpt lat="58.15713" lon="7.09962">
					<ele>15</ele>
					<time>0001-01-01T00:00:00Z</time>
				</trkpt>
				<trkpt lat="58.15714" lon="7.09957">
					<ele>11</ele>
					<time>0001-01-01T00:00:00Z</time>
				</trkpt>
				<trkpt lat="58.15713" lon="7.09955">
					<ele>21</ele>
					<time>0001-01-01T00:00:00Z</time>
				</trkpt>
				<trkpt lat="58.15722" lon="7.09934">
					<ele>20</ele>
					<time>0001-01-01T00:00:00Z</time>
				</trkpt>
				<trkpt lat="58.15727" lon="7.09909">
					<ele>19</ele>
					<time>0001-01-01T00:00:00Z</time>
				</trkpt>
				<trkpt lat="58.15731" lon="7.09740">
					<ele>15</ele>
					<time>0001-01-01T00:00:00Z</time>
				</trkpt>
				<trkpt lat="58.15733" lon="7.09640">
					<ele>15</ele>
					<time>0001-01-01T00:00:00Z</time>
				</trkpt>
				<trkpt lat="58.15757" lon="7.09623">
					<ele>15</ele>
					<time>0001-01-01T00:00:00Z</time>
				</trkpt>
				<trkpt lat="58.15767" lon="7.09600">
					<ele>15</ele>
					<time>0001-01-01T00:00:00Z</time>
				</trkpt>
				<trkpt lat="58.15755" lon="7.09585">
					<ele>15</ele>
					<time>0001-01-01T00:00:00Z</time>
				</trkpt>
				<trkpt lat="58.15742" lon="7.09550">
					<ele>15</ele>
					<time>0001-01-01T00:00:00Z</time>
				</trkpt>
				<trkpt lat="58.15747" lon="7.09348">
					<ele>15</ele>
					<time>0001-01-01T00:00:00Z</time>
				</trkpt>
				<trkpt lat="58.15757" lon="7.09209">
					<ele>11</ele>
					<time>0001-01-01T00:00:00Z</time>
				</trkpt>
				<trkpt lat="58.15772" lon="7.09180">
					<ele>9</ele>
					<time>0001-01-01T00:00:00Z</time>
				</trkpt>
				<trkpt lat="58.15797" lon="7.09148">
					<ele>9</ele>
					<time>0001-01-01T00:00:00Z</time>
				</trkpt>
				<trkpt lat="58.15867" lon="7.09126">
					<ele>8</ele>
					<time>0001-01-01T00:00:00Z</time>
				</trkpt>
				<trkpt lat="58.16005" lon="7.09086">
					<ele>11</ele>
					<time>0001-01-01T00:00:00Z</time>
				</trkpt>
				<trkpt lat="58.16131" lon="7.09017">
					<ele>11</ele>
					<time>0001-01-01T00:00:00Z</time>
				</trkpt>
				<trkpt lat="58.16305" lon="7.08910">
					<ele>9</ele>
					<time>0001-01-01T00:00:00Z</time>
				</trkpt>
				<trkpt lat="58.16463" lon="7.08849">
					<ele>7</ele>
					<time>0001-01-01T00:00:00Z</time>
				</trkpt>
				<trkpt lat="58.16531" lon="7.08853">
					<ele>6</ele>
					<time>0001-01-01T00:00:00Z</time>
				</trkpt>
				<trkpt lat="58.16569" lon="7.08889">
					<ele>5</ele>
					<time>0001-01-01T00:00:00Z</time>
				</trkpt>
				<trkpt lat="58.16684" lon="7.09012">
					<ele>5</ele>
					<time>0001-01-01T00:00:00Z</time>
				</trkpt>
				<trkpt lat="58.16771" lon="7.08962">
					<ele>5</ele>
					<time>0001-01-01T00:00:00Z</time>
				</trkpt>
				<trkpt lat="58.16996" lon="7.08881">
					<ele>3</ele>
					<time>0001-01-01T00:00:00Z</time>
				</trkpt>
				<trkpt lat="58.17161" lon="7.08973">
					<ele>3</ele>
					<time>0001-01-01T00:00:00Z</time>
				</trkpt>
				<trkpt lat="58.17405" lon="7.09187">
					<ele>6</ele>
					<time>0001-01-01T00:00:00Z</time>
				</trkpt>
				<trkpt lat="58.17571" lon="7.09430">
					<ele>11</ele>
					<time>0001-01-01T00:00:00Z</time>
				</trkpt>
				<trkpt lat="58.17722" lon="7.09651">
					<ele>15</ele>
					<time>0001-01-01T00:00:00Z</time>
				</trkpt>
				<trkpt lat="58.17843" lon="7.09806">
					<ele>21</ele>
					<time>0001-01-01T00:00:00Z</time>
				</trkpt>
				<trkpt lat="58.18117" lon="7.09804">
					<ele>24</ele>
					<time>0001-01-01T00:00:00Z</time>
				</trkpt>
				<trkpt lat="58.18123" lon="7.09804">
					<ele>24</ele>
					<time>0001-01-01T00:00:00Z</time>
				</trkpt>
				<trkpt lat="58.18238" lon="7.09870">
					<ele>24</ele>
					<time>0001-01-01T00:00:00Z</time>
				</trkpt>
				<trkpt lat="58.18357" lon="7.09992">
					<ele>24</ele>
					<time>0001-01-01T00:00:00Z</time>
				</trkpt>
				<trkpt lat="58.18492" lon="7.10136">
					<ele>26</ele>
					<time>0001-01-01T00:00:00Z</time>
				</trkpt>
				<trkpt lat="58.18585" lon="7.10324">
					<ele>27</ele>
					<time>0001-01-01T00:00:00Z</time>
				</trkpt>
				<trkpt lat="58.18651" lon="7.10628">
					<ele>28</ele>
					<time>0001-01-01T00:00:00Z</time>
				</trkpt>
				<trkpt lat="58.18672" lon="7.10869">
					<ele>28</ele>
					<time>0001-01-01T00:00:00Z</time>
				</trkpt>
				<trkpt lat="58.18730" lon="7.11084">
					<ele>28</ele>
					<time>0001-01-01T00:00:00Z</time>
				</trkpt>
				<trkpt lat="58.18854" lon="7.11252">
					<ele>30</ele>
					<time>0001-01-01T00:00:00Z</time>
				</trkpt>
				<trkpt lat="58.18922" lon="7.11292">
					<ele>28</ele>
					<time>0001-01-01T00:00:00Z</time>
				</trkpt>
				<trkpt lat="58.19063" lon="7.11388">
					<ele>28</ele>
					<time>0001-01-01T00:00:00Z</time>
				</trkpt>
				<trkpt lat="58.19192" lon="7.11491">
					<ele>28</ele>
					<time>0001-01-01T00:00:00Z</time>
				</trkpt>
				<trkpt lat="58.19343" lon="7.11576">
					<ele>29</ele>
					<time>0001-01-01T00:00:00Z</time>
				</trkpt>
				<trkpt lat="58.19468" lon="7.11711">
					<ele>30</ele>
					<time>0001-01-01T00:00:00Z</time>
				</trkpt>
				<trkpt lat="58.19544" lon="7.11897">
					<ele>32</ele>
					<time>0001-01-01T00:00:00Z</time>
				</trkpt>
				<trkpt lat="58.19665" lon="7.12206">
					<ele>33</ele>
					<time>0001-01-01T00:00:00Z</time>
				</trkpt>
				<trkpt lat="58.19751" lon="7.12298">
					<ele>35</ele>
					<time>0001-01-01T00:00:00Z</time>
				</trkpt>
				<trkpt lat="58.19865" lon="7.12318">
					<ele>32</ele>
					<time>0001-01-01T00:00:00Z</time>
				</trkpt>
				<trkpt lat="58.19961" lon="7.12336">
					<ele>32</ele>
					<time>0001-01-01T00:00:00Z</time>
				</trkpt>
				<trkpt lat="58.20015" lon="7.12444">
					<ele>32</ele>
					<time>0001-01-01T00:00:00Z</time>
				</trkpt>
				<trkpt lat="58.20068" lon="7.12568">
					<ele>33</ele>
					<time>0001-01-01T00:00:00Z</time>
				</trkpt>
				<trkpt lat="58.20102" lon="7.12572">
					<ele>32</ele>
					<time>0001-01-01T00:00:00Z</time>
				</trkpt>
				<trkpt lat="58.20234" lon="7.12611">
					<ele>31</ele>
					<time>0001-01-01T00:00:00Z</time>
				</trkpt>
				<trkpt lat="58.20258" lon="7.12633">
					<ele>31</ele>
					<time>0001-01-01T00:00:00Z</time>
				</trkpt>
				<trkpt lat="58.20417" lon="7.12840">
					<ele>31</ele>
					<time>0001-01-01T00:00:00Z</time>
				</trkpt>
				<trkpt lat="58.20441" lon="7.12886">
					<ele>31</ele>
					<time>0001-01-01T00:00:00Z</time>
				</trkpt>
				<trkpt lat="58.20495" lon="7.13108">
					<ele>35</ele>
					<time>0001-01-01T00:00:00Z</time>
				</trkpt>
				<trkpt lat="58.20576" lon="7.13310">
					<ele>39</ele>
					<time>0001-01-01T00:00:00Z</time>
				</trkpt>
				<trkpt lat="58.20683" lon="7.13442">
					<ele>41</ele>
					<time>0001-01-01T00:00:00Z</time>
				</trkpt>
				<trkpt lat="58.20823" lon="7.13549">
					<ele>41</ele>
					<time>0001-01-01T00:00:00Z</time>
				</trkpt>
				<trkpt lat="58.20972" lon="7.13654">
					<ele>37</ele>
					<time>0001-01-01T00:00:00Z</time>
				</trkpt>
				<trkpt lat="58.21046" lon="7.13694">
					<ele>34</ele>
					<time>0001-01-01T00:00:00Z</time>
				</trkpt>
				<trkpt lat="58.21086" lon="7.13689">
					<ele>33</ele>
					<time>0001-01-01T00:00:00Z</time>
				</trkpt>
				<trkpt lat="58.21199" lon="7.13652">
					<ele>32</ele>
					<time>0001-01-01T00:00:00Z</time>
				</trkpt>
				<trkpt lat="58.21292" lon="7.13752">
					<ele>35</ele>
					<time>0001-01-01T00:00:00Z</time>
				</trkpt>
				<trkpt lat="58.21401" lon="7.13945">
					<ele>39</ele>
					<time>0001-01-01T00:00:00Z</time>
				</trkpt>
				<trkpt lat="58.21518" lon="7.14123">
					<ele>40</ele>
					<time>0001-01-01T00:00:00Z</time>
				</trkpt>
				<trkpt lat="58.21600" lon="7.14262">
					<ele>40</ele>
					<time>0001-01-01T00:00:00Z</time>
				</trkpt>
				<trkpt lat="58.21653" lon="7.14464">
					<ele>40</ele>
					<time>0001-01-01T00:00:00Z</time>
				</trkpt>
				<trkpt lat="58.21724" lon="7.14642">
					<ele>40</ele>
					<time>0001-01-01T00:00:00Z</time>
				</trkpt>
				<trkpt lat="58.21830" lon="7.14792">
					<ele>40</ele>
					<time>0001-01-01T00:00:00Z</time>
				</trkpt>
				<trkpt lat="58.22005" lon="7.14982">
					<ele>40</ele>
					<time>0001-01-01T00:00:00Z</time>
				</trkpt>
				<trkpt lat="58.22140" lon="7.15163">
					<ele>40</ele>
					<time>0001-01-01T00:00:00Z</time>
				</trkpt>
				<trkpt lat="58.22189" lon="7.15320">
					<ele>41</ele>
					<time>0001-01-01T00:00:00Z</time>
				</trkpt>
				<trkpt lat="58.22243" lon="7.15497">
					<ele>41</ele>
					<time>0001-01-01T00:00:00Z</time>
				</trkpt>
				<trkpt lat="58.22340" lon="7.15634">
					<ele>41</ele>
					<time>0001-01-01T00:00:00Z</time>
				</trkpt>
				<trkpt lat="58.22459" lon="7.15737">
					<ele>40</ele>
					<time>0001-01-01T00:00:00Z</time>
				</trkpt>
				<trkpt lat="58.22571" lon="7.15821">
					<ele>40</ele>
					<time>0001-01-01T00:00:00Z</time>
				</trkpt>
				<trkpt lat="58.22694" lon="7.15831">
					<ele>40</ele>
					<time>0001-01-01T00:00:00Z</time>
				</trkpt>
				<trkpt lat="58.22720" lon="7.15868">
					<ele>40</ele>
					<time>0001-01-01T00:00:00Z</time>
				</trkpt>
				<trkpt lat="58.22803" lon="7.16120">
					<ele>40</ele>
					<time>0001-01-01T00:00:00Z</time>
				</trkpt>
				<trkpt lat="58.22892" lon="7.16221">
					<ele>40</ele>
					<time>0001-01-01T00:00:00Z</time>
				</trkpt>
				<trkpt lat="58.23003" lon="7.16281">
					<ele>39</ele>
					<time>0001-01-01T00:00:00Z</time>
				</trkpt>
				<trkpt lat="58.23135" lon="7.16435">
					<ele>43</ele>
					<time>0001-01-01T00:00:00Z</time>
				</trkpt>
				<trkpt lat="58.23294" lon="7.16620">
					<ele>42</ele>
					<time>0001-01-01T00:00:00Z</time>
				</trkpt>
				<trkpt lat="58.23420" lon="7.16803">
					<ele>41</ele>
					<time>0001-01-01T00:00:00Z</time>
				</trkpt>
				<trkpt lat="58.23516" lon="7.17058">
					<ele>40</ele>
					<time>0001-01-01T00:00:00Z</time>
				</trkpt>
				<trkpt lat="58.23637" lon="7.17320">
					<ele>38</ele>
					<time>0001-01-01T00:00:00Z</time>
				</trkpt>
				<trkpt lat="58.23741" lon="7.17526">
					<ele>39</ele>
					<time>0001-01-01T00:00:00Z</time>
				</trkpt>
				<trkpt lat="58.23835" lon="7.17682">
					<ele>42</ele>
					<time>0001-01-01T00:00:00Z</time>
				</trkpt>
				<trkpt lat="58.23927" lon="7.17817">
					<ele>44</ele>
					<time>0001-01-01T00:00:00Z</time>
				</trkpt>
				<trkpt lat="58.24016" lon="7.17982">
					<ele>43</ele>
					<time>0001-01-01T00:00:00Z</time>
				</trkpt>
				<trkpt lat="58.24141" lon="7.18162">
					<ele>44</ele>
					<time>0001-01-01T00:00:00Z</time>
				</trkpt>
				<trkpt lat="58.24257" lon="7.18235">
					<ele>46</ele>
					<time>0001-01-01T00:00:00Z</time>
				</trkpt>
				<trkpt lat="58.24369" lon="7.18294">
					<ele>47</ele>
					<time>0001-01-01T00:00:00Z</time>
				</trkpt>
				<trkpt lat="58.24470" lon="7.18351">
					<ele>49</ele>
					<time>0001-01-01T00:00:00Z</time>
				</trkpt>
				<trkpt lat="58.24634" lon="7.18437">
					<ele>47</ele>
					<time>0001-01-01T00:00:00Z</time>
				</trkpt>
				<trkpt lat="58.24791" lon="7.18521">
					<ele>47</ele>
					<time>0001-01-01T00:00:00Z</time>
				</trkpt>
				<trkpt lat="58.24987" lon="7.18626">
					<ele>48</ele>
					<time>0001-01-01T00:00:00Z</time>
				</trkpt>
				<trkpt lat="58.25155" lon="7.18713">
					<ele>49</ele>
					<time>0001-01-01T00:00:00Z</time>
				</trkpt>
				<trkpt lat="58.25333" lon="7.18805">
					<ele>50</ele>
					<time>0001-01-01T00:00:00Z</time>
				</trkpt>
				<trkpt lat="58.25522" lon="7.18902">
					<ele>51</ele>
					<time>0001-01-01T00:00:00Z</time>
				</trkpt>
				<trkpt lat="58.25612" lon="7.18961">
					<ele>52</ele>
					<time>0001-01-01T00:00:00Z</time>
				</trkpt>
				<trkpt lat="58.25695" lon="7.19095">
					<ele>53</ele>
					<time>0001-01-01T00:00:00Z</time>
				</trkpt>
				<trkpt lat="58.25750" lon="7.19171">
					<ele>52</ele>
					<time>0001-01-01T00:00:00Z</time>
				</trkpt>
				<trkpt lat="58.25780" lon="7.19168">
					<ele>52</ele>
					<time>0001-01-01T00:00:00Z</time>
				</trkpt>
				<trkpt lat="58.25840" lon="7.19145">
					<ele>53</ele>
					<time>0001-01-01T00:00:00Z</time>
				</trkpt>
				<trkpt lat="58.25894" lon="7.19197">
					<ele>54</ele>
					<time>0001-01-01T00:00:00Z</time>
				</trkpt>
				<trkpt lat="58.25913" lon="7.19239">
					<ele>55</ele>
					<time>0001-01-01T00:00:00Z</time>
				</trkpt>
				<trkpt lat="58.25935" lon="7.19415">
					<ele>56</ele>
					<time>0001-01-01T00:00:00Z</time>
				</trkpt>
				<trkpt lat="58.25940" lon="7.19443">
					<ele>56</ele>
					<time>0001-01-01T00:00:00Z</time>
				</trkpt>
				<trkpt lat="58.26002" lon="7.19634">
					<ele>57</ele>
					<time>0001-01-01T00:00:00Z</time>
				</trkpt>
				<trkpt lat="58.26007" lon="7.19646">
					<ele>57</ele>
					<time>0001-01-01T00:00:00Z</time>
				</trkpt>
				<trkpt lat="58.26095" lon="7.19760">
					<ele>57</ele>
					<time>0001-01-01T00:00:00Z</time>
				</trkpt>
				<trkpt lat="58.26219" lon="7.19839">
					<ele>57</ele>
					<time>0001-01-01T00:00:00Z</time>
				</trkpt>
				<trkpt lat="58.26328" lon="7.19903">
					<ele>58</ele>
					<time>0001-01-01T00:00:00Z</time>
				</trkpt>
				<trkpt lat="58.26344" lon="7.19954">
					<ele>58</ele>
					<time>0001-01-01T00:00:00Z</time>
				</trkpt>
				<trkpt lat="58.26317" lon="7.20247">
					<ele>56</ele>
					<time>0001-01-01T00:00:00Z</time>
				</trkpt>
				<trkpt lat="58.26319" lon="7.20321">
					<ele>57</ele>
					<time>0001-01-01T00:00:00Z</time>
				</trkpt>
				<trkpt lat="58.26346" lon="7.20434">
					<ele>62</ele>
					<time>0001-01-01T00:00:00Z</time>
				</trkpt>
				<trkpt lat="58.26369" lon="7.20475">
					<ele>66</ele>
					<time>0001-01-01T00:00:00Z</time>
				</trkpt>
				<trkpt lat="58.26406" lon="7.20514">
					<ele>73</ele>
					<time>0001-01-01T00:00:00Z</time>
				</trkpt>
				<trkpt lat="58.26447" lon="7.20527">
					<ele>76</ele>
					<time>0001-01-01T00:00:00Z</time>
				</trkpt>
				<trkpt lat="58.26495" lon="7.20511">
					<ele>78</ele>
					<time>0001-01-01T00:00:00Z</time>
				</trkpt>
				<trkpt lat="58.26543" lon="7.20498">
					<ele>78</ele>
					<time>0001-01-01T00:00:00Z</time>
				</trkpt>
				<trkpt lat="58.26566" lon="7.20517">
					<ele>82</ele>
					<time>0001-01-01T00:00:00Z</time>
				</trkpt>
				<trkpt lat="58.26601" lon="7.20563">
					<ele>87</ele>
					<time>0001-01-01T00:00:00Z</time>
				</trkpt>
				<trkpt lat="58.26643" lon="7.20537">
					<ele>89</ele>
					<time>0001-01-01T00:00:00Z</time>
				</trkpt>
				<trkpt lat="58.26663" lon="7.20462">
					<ele>92</ele>
					<time>0001-01-01T00:00:00Z</time>
				</trkpt>
				<trkpt lat="58.26698" lon="7.20436">
					<ele>100</ele>
					<time>0001-01-01T00:00:00Z</time>
				</trkpt>
				<trkpt lat="58.26714" lon="7.20499">
					<ele>107</ele>
					<time>0001-01-01T00:00:00Z</time>
				</trkpt>
				<trkpt lat="58.26718" lon="7.20511">
					<ele>109</ele>
					<time>0001-01-01T00:00:00Z</time>
				</trkpt>
				<trkpt lat="58.26733" lon="7.20560">
					<ele>114</ele>
					<time>0001-01-01T00:00:00Z</time>
				</trkpt>
				<trkpt lat="58.26734" lon="7.20643">
					<ele>116</ele>
					<time>0001-01-01T00:00:00Z</time>
				</trkpt>
				<trkpt lat="58.26735" lon="7.20731">
					<ele>122</ele>
					<time>0001-01-01T00:00:00Z</time>
				</trkpt>
				<trkpt lat="58.26757" lon="7.20823">
					<ele>128</ele>
					<time>0001-01-01T00:00:00Z</time>
				</trkpt>
				<trkpt lat="58.26756" lon="7.20892">
					<ele>132</ele>
					<time>0001-01-01T00:00:00Z</time>
				</trkpt>
				<trkpt lat="58.26748" lon="7.20959">
					<ele>136</ele>
					<time>0001-01-01T00:00:00Z</time>
				</trkpt>
				<trkpt lat="58.26734" lon="7.21045">
					<ele>142</ele>
					<time>0001-01-01T00:00:00Z</time>
				</trkpt>
				<trkpt lat="58.26725" lon="7.21103">
					<ele>145</ele>
					<time>0001-01-01T00:00:00Z</time>
				</trkpt>
				<trkpt lat="58.26716" lon="7.21170">
					<ele>147</ele>
					<time>0001-01-01T00:00:00Z</time>
				</trkpt>
				<trkpt lat="58.26724" lon="7.21216">
					<ele>150</ele>
					<time>0001-01-01T00:00:00Z</time>
				</trkpt>
				<trkpt lat="58.26747" lon="7.21280">
					<ele>158</ele>
					<time>0001-01-01T00:00:00Z</time>
				</trkpt>
				<trkpt lat="58.26778" lon="7.21325">
					<ele>162</ele>
					<time>0001-01-01T00:00:00Z</time>
				</trkpt>
				<trkpt lat="58.26825" lon="7.21329">
					<ele>168</ele>
					<time>0001-01-01T00:00:00Z</time>
				</trkpt>
				<trkpt lat="58.26861" lon="7.21338">
					<ele>171</ele>
					<time>0001-01-01T00:00:00Z</time>
				</trkpt>
				<trkpt lat="58.26907" lon="7.21349">
					<ele>177</ele>
					<time>0001-01-01T00:00:00Z</time>
				</trkpt>
				<trkpt lat="58.26947" lon="7.21360">
					<ele>178</ele>
					<time>0001-01-01T00:00:00Z</time>
				</trkpt>
				<trkpt lat="58.26970" lon="7.21409">
					<ele>183</ele>
					<time>0001-01-01T00:00:00Z</time>
				</trkpt>
				<trkpt lat="58.26984" lon="7.21461">
					<ele>187</ele>
					<time>0001-01-01T00:00:00Z</time>
				</trkpt>
				<trkpt lat="58.26984" lon="7.21518">
					<ele>188</ele>
					<time>0001-01-01T00:00:00Z</time>
				</trkpt>
				<trkpt lat="58.26954" lon="7.21582">
					<ele>195</ele>
					<time>0001-01-01T00:00:00Z</time>
				</trkpt>
				<trkpt lat="58.26916" lon="7.21622">
					<ele>201</ele>
					<time>0001-01-01T00:00:00Z</time>
				</trkpt>
				<trkpt lat="58.26865" lon="7.21615">
					<ele>208</ele>
					<time>0001-01-01T00:00:00Z</time>
				</trkpt>
				<trkpt lat="58.26831" lon="7.21640">
					<ele>214</ele>
					<time>0001-01-01T00:00:00Z</time>
				</trkpt>
				<trkpt lat="58.26811" lon="7.21695">
					<ele>217</ele>
					<time>0001-01-01T00:00:00Z</time>
				</trkpt>
				<trkpt lat="58.26782" lon="7.21725">
					<ele>222</ele>
					<time>0001-01-01T00:00:00Z</time>
				</trkpt>
				<trkpt lat="58.26741" lon="7.21743">
					<ele>227</ele>
					<time>0001-01-01T00:00:00Z</time>
				</trkpt>
				<trkpt lat="58.26703" lon="7.21720">
					<ele>233</ele>
					<time>0001-01-01T00:00:00Z</time>
				</trkpt>
				<trkpt lat="58.26657" lon="7.21707">
					<ele>238</ele>
					<time>0001-01-01T00:00:00Z</time>
				</trkpt>
				<trkpt lat="58.26632" lon="7.21655">
					<ele>242</ele>
					<time>0001-01-01T00:00:00Z</time>
				</trkpt>
				<trkpt lat="58.26608" lon="7.21618">
					<ele>248</ele>
					<time>0001-01-01T00:00:00Z</time>
				</trkpt>
				<trkpt lat="58.26581" lon="7.21608">
					<ele>254</ele>
					<time>0001-01-01T00:00:00Z</time>
				</trkpt>
				<trkpt lat="58.26564" lon="7.21643">
					<ele>258</ele>
					<time>0001-01-01T00:00:00Z</time>
				</trkpt>
				<trkpt lat="58.26572" lon="7.21710">
					<ele>264</ele>
					<time>0001-01-01T00:00:00Z</time>
				</trkpt>
				<trkpt lat="58.26582" lon="7.21805">
					<ele>271</ele>
					<time>0001-01-01T00:00:00Z</time>
				</trkpt>
				<trkpt lat="58.26559" lon="7.21871">
					<ele>275</ele>
					<time>0001-01-01T00:00:00Z</time>
				</trkpt>
				<trkpt lat="58.26540" lon="7.21953">
					<ele>281</ele>
					<time>0001-01-01T00:00:00Z</time>
				</trkpt>
				<trkpt lat="58.26561" lon="7.22030">
					<ele>288</ele>
					<time>0001-01-01T00:00:00Z</time>
				</trkpt>
				<trkpt lat="58.26598" lon="7.22105">
					<ele>295</ele>
					<time>0001-01-01T00:00:00Z</time>
				</trkpt>
				<trkpt lat="58.26603" lon="7.22196">
					<ele>296</ele>
					<time>0001-01-01T00:00:00Z</time>
				</trkpt>
				<trkpt lat="58.26599" lon="7.22322">
					<ele>298</ele>
					<time>0001-01-01T00:00:00Z</time>
				</trkpt>
				<trkpt lat="58.26600" lon="7.22415">
					<ele>296</ele>
					<time>0001-01-01T00:00:00Z</time>
				</trkpt>
				<trkpt lat="58.26593" lon="7.22454">
					<ele>294</ele>
					<time>0001-01-01T00:00:00Z</time>
				</trkpt>
				<trkpt lat="58.26560" lon="7.22513">
					<ele>291</ele>
					<time>0001-01-01T00:00:00Z</time>
				</trkpt>
				<trkpt lat="58.26503" lon="7.22576">
					<ele>288</ele>
					<time>0001-01-01T00:00:00Z</time>
				</trkpt>
				<trkpt lat="58.26482" lon="7.22699">
					<ele>285</ele>
					<time>0001-01-01T00:00:00Z</time>
				</trkpt>
				<trkpt lat="58.26513" lon="7.22795">
					<ele>282</ele>
					<time>0001-01-01T00:00:00Z</time>
				</trkpt>
				<trkpt lat="58.26607" lon="7.22895">
					<ele>283</ele>
					<time>0001-01-01T00:00:00Z</time>
				</trkpt>
				<trkpt lat="58.26630" lon="7.22934">
					<ele>284</ele>
					<time>0001-01-01T00:00:00Z</time>
				</trkpt>
				<trkpt lat="58.26644" lon="7.22976">
					<ele>286</ele>
					<time>0001-01-01T00:00:00Z</time>
				</trkpt>
				<trkpt lat="58.26647" lon="7.23059">
					<ele>290</ele>
					<time>0001-01-01T00:00:00Z</time>
				</trkpt>
				<trkpt lat="58.26638" lon="7.23123">
					<ele>289</ele>
					<time>0001-01-01T00:00:00Z</time>
				</trkpt>
				<trkpt lat="58.26631" lon="7.23169">
					<ele>289</ele>
					<time>0001-01-01T00:00:00Z</time>
				</trkpt>
				<trkpt lat="58.26620" lon="7.23289">
					<ele>285</ele>
					<time>0001-01-01T00:00:00Z</time>
				</trkpt>
				<trkpt lat="58.26597" lon="7.23357">
					<ele>284</ele>
					<time>0001-01-01T00:00:00Z</time>
				</trkpt>
				<trkpt lat="58.26591" lon="7.23379">
					<ele>284</ele>
					<time>0001-01-01T00:00:00Z</time>
				</trkpt>
				<trkpt lat="58.26587" lon="7.23463">
					<ele>284</ele>
					<time>0001-01-01T00:00:00Z</time>
				</trkpt>
				<trkpt lat="58.26606" lon="7.23713">
					<ele>282</ele>
					<time>0001-01-01T00:00:00Z</time>
				</trkpt>
				<trkpt lat="58.26611" lon="7.23745">
					<ele>282</ele>
					<time>0001-01-01T00:00:00Z</time>
				</trkpt>
				<trkpt lat="58.26646" lon="7.23823">
					<ele>280</ele>
					<time>0001-01-01T00:00:00Z</time>
				</trkpt>
				<trkpt lat="58.26670" lon="7.23844">
					<ele>281</ele>
					<time>0001-01-01T00:00:00Z</time>
				</trkpt>
				<trkpt lat="58.26692" lon="7.23944">
					<ele>282</ele>
					<time>0001-01-01T00:00:00Z</time>
				</trkpt>
				<trkpt lat="58.26678" lon="7.24049">
					<ele>282</ele>
					<time>0001-01-01T00:00:00Z</time>
				</trkpt>
				<trkpt lat="58.26671" lon="7.24077">
					<ele>282</ele>
					<time>0001-01-01T00:00:00Z</time>
				</trkpt>
				<trkpt lat="58.26643" lon="7.24172">
					<ele>282</ele>
					<time>0001-01-01T00:00:00Z</time>
				</trkpt>
				<trkpt lat="58.26628" lon="7.24333">
					<ele>287</ele>
					<time>0001-01-01T00:00:00Z</time>
				</trkpt>
				<trkpt lat="58.26623" lon="7.24454">
					<ele>289</ele>
					<time>0001-01-01T00:00:00Z</time>
				</trkpt>
				<trkpt lat="58.26609" lon="7.24536">
					<ele>293</ele>
					<time>0001-01-01T00:00:00Z</time>
				</trkpt>
				<trkpt lat="58.26587" lon="7.24643">
					<ele>296</ele>
					<time>0001-01-01T00:00:00Z</time>
				</trkpt>
				<trkpt lat="58.26584" lon="7.24762">
					<ele>302</ele>
					<time>0001-01-01T00:00:00Z</time>
				</trkpt>
				<trkpt lat="58.26595" lon="7.24890">
					<ele>308</ele>
					<time>0001-01-01T00:00:00Z</time>
				</trkpt>
				<trkpt lat="58.26588" lon="7.25005">
					<ele>313</ele>
					<time>0001-01-01T00:00:00Z</time>
				</trkpt>
				<trkpt lat="58.26581" lon="7.25129">
					<ele>314</ele>
					<time>0001-01-01T00:00:00Z</time>
				</trkpt>
				<trkpt lat="58.26584" lon="7.25299">
					<ele>315</ele>
					<time>0001-01-01T00:00:00Z</time>
				</trkpt>
				<trkpt lat="58.26617" lon="7.25458">
					<ele>314</ele>
					<time>0001-01-01T00:00:00Z</time>
				</trkpt>
				<trkpt lat="58.26649" lon="7.25645">
					<ele>310</ele>
					<time>0001-01-01T00:00:00Z</time>
				</trkpt>
				<trkpt lat="58.26748" lon="7.25989">
					<ele>303</ele>
					<time>0001-01-01T00:00:00Z</time>
				</trkpt>
				<trkpt lat="58.26760" lon="7.26024">
					<ele>301</ele>
					<time>0001-01-01T00:00:00Z</time>
				</trkpt>
				<trkpt lat="58.26786" lon="7.26258">
					<ele>296</ele>
					<time>0001-01-01T00:00:00Z</time>
				</trkpt>
				<trkpt lat="58.26788" lon="7.26341">
					<ele>293</ele>
					<time>0001-01-01T00:00:00Z</time>
				</trkpt>
				<trkpt lat="58.26833" lon="7.26526">
					<ele>287</ele>
					<time>0001-01-01T00:00:00Z</time>
				</trkpt>
				<trkpt lat="58.26873" lon="7.26712">
					<ele>282</ele>
					<time>0001-01-01T00:00:00Z</time>
				</trkpt>
				<trkpt lat="58.26896" lon="7.26812">
					<ele>278</ele>
					<time>0001-01-01T00:00:00Z</time>
				</trkpt>
				<trkpt lat="58.26898" lon="7.26820">
					<ele>278</ele>
					<time>0001-01-01T00:00:00Z</time>
				</trkpt>
				<trkpt lat="58.26932" lon="7.26951">
					<ele>281</ele>
					<time>0001-01-01T00:00:00Z</time>
				</trkpt>
				<trkpt lat="58.26983" lon="7.27108">
					<ele>284</ele>
					<time>0001-01-01T00:00:00Z</time>
				</trkpt>
				<trkpt lat="58.27022" lon="7.27153">
					<ele>279</ele>
					<time>0001-01-01T00:00:00Z</time>
				</trkpt>
				<trkpt lat="58.27077" lon="7.27181">
					<ele>276</ele>
					<time>0001-01-01T00:00:00Z</time>
				</trkpt>
				<trkpt lat="58.27108" lon="7.27259">
					<ele>270</ele>
					<time>0001-01-01T00:00:00Z</time>
				</trkpt>
				<trkpt lat="58.27118" lon="7.27303">
					<ele>268</ele>
					<time>0001-01-01T00:00:00Z</time>
				</trkpt>
				<trkpt lat="58.27148" lon="7.27395">
					<ele>268</ele>
					<time>0001-01-01T00:00:00Z</time>
				</trkpt>
				<trkpt lat="58.27160" lon="7.27462">
					<ele>270</ele>
					<time>0001-01-01T00:00:00Z</time>
				</trkpt>
				<trkpt lat="58.27199" lon="7.27545">
					<ele>271</ele>
					<time>0001-01-01T00:00:00Z</time>
				</trkpt>
				<trkpt lat="58.27294" lon="7.27611">
					<ele>263</ele>
					<time>0001-01-01T00:00:00Z</time>
				</trkpt>
				<trkpt lat="58.27392" lon="7.27625">
					<ele>263</ele>
					<time>0001-01-01T00:00:00Z</time>
				</trkpt>
				<trkpt lat="58.27434" lon="7.27628">
					<ele>263</ele>
					<time>0001-01-01T00:00:00Z</time>
				</trkpt>
				<trkpt lat="58.27483" lon="7.27666">
					<ele>263</ele>
					<time>0001-01-01T00:00:00Z</time>
				</trkpt>
				<trkpt lat="58.27597" lon="7.27739">
					<ele>260</ele>
					<time>0001-01-01T00:00:00Z</time>
				</trkpt>
				<trkpt lat="58.27722" lon="7.27776">
					<ele>258</ele>
					<time>0001-01-01T00:00:00Z</time>
				</trkpt>
				<trkpt lat="58.27768" lon="7.27849">
					<ele>258</ele>
					<time>0001-01-01T00:00:00Z</time>
				</trkpt>
				<trkpt lat="58.27765" lon="7.27899">
					<ele>258</ele>
					<time>0001-01-01T00:00:00Z</time>
				</trkpt>
				<trkpt lat="58.27741" lon="7.28074">
					<ele>256</ele>
					<time>0001-01-01T00:00:00Z</time>
				</trkpt>
				<trkpt lat="58.27743" lon="7.28129">
					<ele>257</ele>
					<time>0001-01-01T00:00:00Z</time>
				</trkpt>
				<trkpt lat="58.27781" lon="7.28302">
					<ele>252</ele>
					<time>0001-01-01T00:00:00Z</time>
				</trkpt>
				<trkpt lat="58.27809" lon="7.28488">
					<ele>256</ele>
					<time>0001-01-01T00:00:00Z</time>
				</trkpt>
				<trkpt lat="58.27829" lon="7.28577">
					<ele>261</ele>
					<time>0001-01-01T00:00:00Z</time>
				</trkpt>
				<trkpt lat="58.27847" lon="7.28607">
					<ele>261</ele>
					<time>0001-01-01T00:00:00Z</time>
				</trkpt>
				<trkpt lat="58.27925" lon="7.28706">
					<ele>262</ele>
					<time>0001-01-01T00:00:00Z</time>
				</trkpt>
				<trkpt lat="58.27941" lon="7.28756">
					<ele>261</ele>
					<time>0001-01-01T00:00:00Z</time>
				</trkpt>
				<trkpt lat="58.27959" lon="7.28914">
					<ele>258</ele>
					<time>0001-01-01T00:00:00Z</time>
				</trkpt>
				<trkpt lat="58.27976" lon="7.29064">
					<ele>254</ele>
					<time>0001-01-01T00:00:00Z</time>
				</trkpt>
				<trkpt lat="58.27956" lon="7.29161">
					<ele>252</ele>
					<time>0001-01-01T00:00:00Z</time>
				</trkpt>
				<trkpt lat="58.27877" lon="7.29323">
					<ele>254</ele>
					<time>0001-01-01T00:00:00Z</time>
				</trkpt>
				<trkpt lat="58.27809" lon="7.29456">
					<ele>251</ele>
					<time>0001-01-01T00:00:00Z</time>
				</trkpt>
				<trkpt lat="58.27769" lon="7.29483">
					<ele>252</ele>
					<time>0001-01-01T00:00:00Z</time>
				</trkpt>
				<trkpt lat="58.27731" lon="7.29486">
					<ele>258</ele>
					<time>0001-01-01T00:00:00Z</time>
				</trkpt>
				<trkpt lat="58.27702" lon="7.29534">
					<ele>263</ele>
					<time>0001-01-01T00:00:00Z</time>
				</trkpt>
				<trkpt lat="58.27681" lon="7.29616">
					<ele>264</ele>
					<time>0001-01-01T00:00:00Z</time>
				</trkpt>
				<trkpt lat="58.27664" lon="7.29722">
					<ele>264</ele>
					<time>0001-01-01T00:00:00Z</time>
				</trkpt>
				<trkpt lat="58.27624" lon="7.29831">
					<ele>259</ele>
					<time>0001-01-01T00:00:00Z</time>
				</trkpt>
				<trkpt lat="58.27617" lon="7.29909">
					<ele>260</ele>
					<time>0001-01-01T00:00:00Z</time>
				</trkpt>
				<trkpt lat="58.27621" lon="7.29979">
					<ele>262</ele>
					<time>0001-01-01T00:00:00Z</time>
				</trkpt>
				<trkpt lat="58.27620" lon="7.29999">
					<ele>264</ele>
					<time>0001-01-01T00:00:00Z</time>
				</trkpt>
				<trkpt lat="58.27603" lon="7.30073">
					<ele>264</ele>
					<time>0001-01-01T00:00:00Z</time>
				</trkpt>
				<trkpt lat="58.27595" lon="7.30128">
					<ele>263</ele>
					<time>0001-01-01T00:00:00Z</time>
				</trkpt>
				<trkpt lat="58.27619" lon="7.30286">
					<ele>268</ele>
					<time>0001-01-01T00:00:00Z</time>
				</trkpt>
				<trkpt lat="58.27654" lon="7.30466">
					<ele>274</ele>
					<time>0001-01-01T00:00:00Z</time>
				</trkpt>
				<trkpt lat="58.27676" lon="7.30550">
					<ele>278</ele>
					<time>0001-01-01T00:00:00Z</time>
				</trkpt>
				<trkpt lat="58.27722" lon="7.30651">
					<ele>281</ele>
					<time>0001-01-01T00:00:00Z</time>
				</trkpt>
				<trkpt lat="58.27760" lon="7.30794">
					<ele>282</ele>
					<time>0001-01-01T00:00:00Z</time>
				</trkpt>
				<trkpt lat="58.27788" lon="7.30973">
					<ele>282</ele>
					<time>0001-01-01T00:00:00Z</time>
				</trkpt>
				<trkpt lat="58.27804" lon="7.31180">
					<ele>278</ele>
					<time>0001-01-01T00:00:00Z</time>
				</trkpt>
				<trkpt lat="58.27830" lon="7.31421">
					<ele>277</ele>
					<time>0001-01-01T00:00:00Z</time>
				</trkpt>
				<trkpt lat="58.27860" lon="7.31561">
					<ele>273</ele>
					<time>0001-01-01T00:00:00Z</time>
				</trkpt>
				<trkpt lat="58.27863" lon="7.31854">
					<ele>259</ele>
					<time>0001-01-01T00:00:00Z</time>
				</trkpt>
				<trkpt lat="58.27872" lon="7.32123">
					<ele>257</ele>
					<time>0001-01-01T00:00:00Z</time>
				</trkpt>
				<trkpt lat="58.27910" lon="7.32435">
					<ele>251</ele>
					<time>0001-01-01T00:00:00Z</time>
				</trkpt>
				<trkpt lat="58.27913" lon="7.32478">
					<ele>249</ele>
					<time>0001-01-01T00:00:00Z</time>
				</trkpt>
				<trkpt lat="58.27957" lon="7.32641">
					<ele>245</ele>
					<time>0001-01-01T00:00:00Z</time>
				</trkpt>
				<trkpt lat="58.27991" lon="7.32922">
					<ele>241</ele>
					<time>0001-01-01T00:00:00Z</time>
				</trkpt>
				<trkpt lat="58.28026" lon="7.33112">
					<ele>239</ele>
					<time>0001-01-01T00:00:00Z</time>
				</trkpt>
				<trkpt lat="58.28044" lon="7.33336">
					<ele>234</ele>
					<time>0001-01-01T00:00:00Z</time>
				</trkpt>
				<trkpt lat="58.28045" lon="7.33353">
					<ele>233</ele>
					<time>0001-01-01T00:00:00Z</time>
				</trkpt>
				<trkpt lat="58.28065" lon="7.33475">
					<ele>226</ele>
					<time>0001-01-01T00:00:00Z</time>
				</trkpt>
				<trkpt lat="58.28055" lon="7.33677">
					<ele>216</ele>
					<time>0001-01-01T00:00:00Z</time>
				</trkpt>
				<trkpt lat="58.28053" lon="7.33698">
					<ele>215</ele>
					<time>0001-01-01T00:00:00Z</time>
				</trkpt>
				<trkpt lat="58.28061" lon="7.33780">
					<ele>211</ele>
					<time>0001-01-01T00:00:00Z</time>
				</trkpt>
				<trkpt lat="58.28068" lon="7.33821">
					<ele>209</ele>
					<time>0001-01-01T00:00:00Z</time>
				</trkpt>
				<trkpt lat="58.28053" lon="7.33947">
					<ele>203</ele>
					<time>0001-01-01T00:00:00Z</time>
				</trkpt>
				<trkpt lat="58.28028" lon="7.34016">
					<ele>200</ele>
					<time>0001-01-01T00:00:00Z</time>
				</trkpt>
				<trkpt lat="58.28003" lon="7.34058">
					<ele>198</ele>
					<time>0001-01-01T00:00:00Z</time>
				</trkpt>
				<trkpt lat="58.27963" lon="7.34072">
					<ele>197</ele>
					<time>0001-01-01T00:00:00Z</time>
				</trkpt>
				<trkpt lat="58.27826" lon="7.34203">
					<ele>189</ele>
					<time>0001-01-01T00:00:00Z</time>
				</trkpt>
				<trkpt lat="58.27761" lon="7.34303">
					<ele>182</ele>
					<time>0001-01-01T00:00:00Z</time>
				</trkpt>
				<trkpt lat="58.27741" lon="7.34329">
					<ele>179</ele>
					<time>0001-01-01T00:00:00Z</time>
				</trkpt>
				<trkpt lat="58.27696" lon="7.34355">
					<ele>177</ele>
					<time>0001-01-01T00:00:00Z</time>
				</trkpt>
				<trkpt lat="58.27673" lon="7.34411">
					<ele>173</ele>
					<time>0001-01-01T00:00:00Z</time>
				</trkpt>
				<trkpt lat="58.27696" lon="7.34411">
					<ele>171</ele>
					<time>0001-01-01T00:00:00Z</time>
				</trkpt>
				<trkpt lat="58.27720" lon="7.34389">
					<ele>170</ele>
					<time>0001-01-01T00:00:00Z</time>
				</trkpt>
				<trkpt lat="58.27770" lon="7.34379">
					<ele>168</ele>
					<time>0001-01-01T00:00:00Z</time>
				</trkpt>
				<trkpt lat="58.27791" lon="7.34383">
					<ele>167</ele>
					<time>0001-01-01T00:00:00Z</time>
				</trkpt>
				<trkpt lat="58.27830" lon="7.34358">
					<ele>165</ele>
					<time>0001-01-01T00:00:00Z</time>
				</trkpt>
				<trkpt lat="58.27885" lon="7.34331">
					<ele>161</ele>
					<time>0001-01-01T00:00:00Z</time>
				</trkpt>
				<trkpt lat="58.28041" lon="7.34397">
					<ele>152</ele>
					<time>0001-01-01T00:00:00Z</time>
				</trkpt>
				<trkpt lat="58.28074" lon="7.34504">
					<ele>147</ele>
					<time>0001-01-01T00:00:00Z</time>
				</trkpt>
				<trkpt lat="58.28094" lon="7.34592">
					<ele>141</ele>
					<time>0001-01-01T00:00:00Z</time>
				</trkpt>
				<trkpt lat="58.28081" lon="7.34696">
					<ele>135</ele>
					<time>0001-01-01T00:00:00Z</time>
				</trkpt>
				<trkpt lat="58.28078" lon="7.34795">
					<ele>129</ele>
					<time>0001-01-01T00:00:00Z</time>
				</trkpt>
				<trkpt lat="58.28117" lon="7.34805">
					<ele>127</ele>
					<time>0001-01-01T00:00:00Z</time>
				</trkpt>
				<trkpt lat="58.28137" lon="7.34798">
					<ele>126</ele>
					<time>0001-01-01T00:00:00Z</time>
				</trkpt>
				<trkpt lat="58.28251" lon="7.34715">
					<ele>120</ele>
					<time>0001-01-01T00:00:00Z</time>
				</trkpt>
				<trkpt lat="58.28301" lon="7.34727">
					<ele>118</ele>
					<time>0001-01-01T00:00:00Z</time>
				</trkpt>
				<trkpt lat="58.28328" lon="7.34769">
					<ele>117</ele>
					<time>0001-01-01T00:00:00Z</time>
				</trkpt>
				<trkpt lat="58.28386" lon="7.34829">
					<ele>110</ele>
					<time>0001-01-01T00:00:00Z</time>
				</trkpt>
				<trkpt lat="58.28476" lon="7.34840">
					<ele>101</ele>
					<time>0001-01-01T00:00:00Z</time>
				</trkpt>
				<trkpt lat="58.28556" lon="7.34928">
					<ele>88</ele>
					<time>0001-01-01T00:00:00Z</time>
				</trkpt>
				<trkpt lat="58.28566" lon="7.35053">
					<ele>81</ele>
					<time>0001-01-01T00:00:00Z</time>
				</trkpt>
				<trkpt lat="58.28544" lon="7.35367">
					<ele>77</ele>
					<time>0001-01-01T00:00:00Z</time>
				</trkpt>
				<trkpt lat="58.28538" lon="7.35451">
					<ele>77</ele>
					<time>0001-01-01T00:00:00Z</time>
				</trkpt>
				<trkpt lat="58.28530" lon="7.35556">
					<ele>78</ele>
					<time>0001-01-01T00:00:00Z</time>
				</trkpt>
				<trkpt lat="58.28534" lon="7.35542">
					<ele>78</ele>
					<time>0001-01-01T00:00:00Z</time>
				</trkpt>
				<trkpt lat="58.28536" lon="7.35517">
					<ele>80</ele>
					<time>0001-01-01T00:00:00Z</time>
				</trkpt>
				<trkpt lat="58.28527" lon="7.35511">
					<ele>82</ele>
					<time>0001-01-01T00:00:00Z</time>
				</trkpt>
				<trkpt lat="58.28529" lon="7.35596">
					<ele>82</ele>
					<time>0001-01-01T00:00:00Z</time>
				</trkpt>
				<trkpt lat="58.28527" lon="7.35596">
					<ele>82</ele>
					<time>0001-01-01T00:00:00Z</time>
				</trkpt>
				<trkpt lat="58.28528" lon="7.35587">
					<ele>86</ele>
					<time>0001-01-01T00:00:00Z</time>
				</trkpt>
				<trkpt lat="58.28519" lon="7.35486">
					<ele>90</ele>
					<time>0001-01-01T00:00:00Z</time>
				</trkpt>
				<trkpt lat="58.28523" lon="7.35497">
					<ele>87</ele>
					<time>0001-01-01T00:00:00Z</time>
				</trkpt>
				<trkpt lat="58.28528" lon="7.35560">
					<ele>82</ele>
					<time>0001-01-01T00:00:00Z</time>
				</trkpt>
				<trkpt lat="58.28528" lon="7.35675">
					<ele>78</ele>
					<time>0001-01-01T00:00:00Z</time>
				</trkpt>
				<trkpt lat="58.28534" lon="7.35802">
					<ele>76</ele>
					<time>0001-01-01T00:00:00Z</time>
				</trkpt>
				<trkpt lat="58.28542" lon="7.35905">
					<ele>76</ele>
					<time>0001-01-01T00:00:00Z</time>
				</trkpt>
				<trkpt lat="58.28553" lon="7.36069">
					<ele>77</ele>
					<time>0001-01-01T00:00:00Z</time>
				</trkpt>
				<trkpt lat="58.28540" lon="7.36218">
					<ele>80</ele>
					<time>0001-01-01T00:00:00Z</time>
				</trkpt>
				<trkpt lat="58.28511" lon="7.36335">
					<ele>85</ele>
					<time>0001-01-01T00:00:00Z</time>
				</trkpt>
				<trkpt lat="58.28472" lon="7.36431">
					<ele>90</ele>
					<time>0001-01-01T00:00:00Z</time>
				</trkpt>
				<trkpt lat="58.28450" lon="7.36540">
					<ele>94</ele>
					<time>0001-01-01T00:00:00Z</time>
				</trkpt>
				<trkpt lat="58.28410" lon="7.36577">
					<ele>98</ele>
					<time>0001-01-01T00:00:00Z</time>
				</trkpt>
				<trkpt lat="58.28353" lon="7.36575">
					<ele>103</ele>
					<time>0001-01-01T00:00:00Z</time>
				</trkpt>
				<trkpt lat="58.28302" lon="7.36537">
					<ele>104</ele>
					<time>0001-01-01T00:00:00Z</time>
				</trkpt>
				<trkpt lat="58.28231" lon="7.36461">
					<ele>110</ele>
					<time>0001-01-01T00:00:00Z</time>
				</trkpt>
				<trkpt lat="58.28185" lon="7.36366">
					<ele>116</ele>
					<time>0001-01-01T00:00:00Z</time>
				</trkpt>
				<trkpt lat="58.28136" lon="7.36265">
					<ele>121</ele>
					<time>0001-01-01T00:00:00Z</time>
				</trkpt>
				<trkpt lat="58.28085" lon="7.36171">
					<ele>126</ele>
					<time>0001-01-01T00:00:00Z</time>
				</trkpt>
				<trkpt lat="58.28060" lon="7.36173">
					<ele>127</ele>
					<time>0001-01-01T00:00:00Z</time>
				</trkpt>
				<trkpt lat="58.28060" lon="7.36198">
					<ele>128</ele>
					<time>0001-01-01T00:00:00Z</time>
				</trkpt>
				<trkpt lat="58.28097" lon="7.36257">
					<ele>132</ele>
					<time>0001-01-01T00:00:00Z</time>
				</trkpt>
				<trkpt lat="58.28127" lon="7.36385">
					<ele>140</ele>
					<time>0001-01-01T00:00:00Z</time>
				</trkpt>
				<trkpt lat="58.28162" lon="7.36484">
					<ele>145</ele>
					<time>0001-01-01T00:00:00Z</time>
				</trkpt>
				<trkpt lat="58.28202" lon="7.36621">
					<ele>150</ele>
					<time>0001-01-01T00:00:00Z</time>
				</trkpt>
				<trkpt lat="58.28227" lon="7.36725">
					<ele>158</ele>
					<time>0001-01-01T00:00:00Z</time>
				</trkpt>
				<trkpt lat="58.28261" lon="7.36828">
					<ele>161</ele>
					<time>0001-01-01T00:00:00Z</time>
				</trkpt>
				<trkpt lat="58.28281" lon="7.36909">
					<ele>163</ele>
					<time>0001-01-01T00:00:00Z</time>
				</trkpt>
				<trkpt lat="58.28269" lon="7.36926">
					<ele>166</ele>
					<time>0001-01-01T00:00:00Z</time>
				</trkpt>
				<trkpt lat="58.28261" lon="7.36915">
					<ele>166</ele>
					<time>0001-01-01T00:00:00Z</time>
				</trkpt>
				<trkpt lat="58.28206" lon="7.36839">
					<ele>166</ele>
					<time>0001-01-01T00:00:00Z</time>
				</trkpt>
				<trkpt lat="58.28164" lon="7.36760">
					<ele>169</ele>
					<time>0001-01-01T00:00:00Z</time>
				</trkpt>
				<trkpt lat="58.28118" lon="7.36664">
					<ele>177</ele>
					<time>0001-01-01T00:00:00Z</time>
				</trkpt>
				<trkpt lat="58.28104" lon="7.36659">
					<ele>179</ele>
					<time>0001-01-01T00:00:00Z</time>
				</trkpt>
				<trkpt lat="58.28098" lon="7.36669">
					<ele>180</ele>
					<time>0001-01-01T00:00:00Z</time>
				</trkpt>
				<trkpt lat="58.28097" lon="7.36680">
					<ele>180</ele>
					<time>0001-01-01T00:00:00Z</time>
				</trkpt>
				<trkpt lat="58.28132" lon="7.36757">
					<ele>183</ele>
					<time>0001-01-01T00:00:00Z</time>
				</trkpt>
				<trkpt lat="58.28152" lon="7.36838">
					<ele>185</ele>
					<time>0001-01-01T00:00:00Z</time>
				</trkpt>
				<trkpt lat="58.28141" lon="7.36967">
					<ele>190</ele>
					<time>0001-01-01T00:00:00Z</time>
				</trkpt>
				<trkpt lat="58.28148" lon="7.37076">
					<ele>196</ele>
					<time>0001-01-01T00:00:00Z</time>
				</trkpt>
				<trkpt lat="58.28173" lon="7.37180">
					<ele>200</ele>
					<time>0001-01-01T00:00:00Z</time>
				</trkpt>
				<trkpt lat="58.28199" lon="7.37281">
					<ele>207</ele>
					<time>0001-01-01T00:00:00Z</time>
				</trkpt>
				<trkpt lat="58.28204" lon="7.37372">
					<ele>210</ele>
					<time>0001-01-01T00:00:00Z</time>
				</trkpt>
				<trkpt lat="58.28174" lon="7.37448">
					<ele>210</ele>
					<time>0001-01-01T00:00:00Z</time>
				</trkpt>
				<trkpt lat="58.28143" lon="7.37533">
					<ele>213</ele>
					<time>0001-01-01T00:00:00Z</time>
				</trkpt>
				<trkpt lat="58.28102" lon="7.37676">
					<ele>215</ele>
					<time>0001-01-01T00:00:00Z</time>
				</trkpt>
				<trkpt lat="58.28095" lon="7.37699">
					<ele>215</ele>
					<time>0001-01-01T00:00:00Z</time>
				</trkpt>
				<trkpt lat="58.28056" lon="7.37835">
					<ele>217</ele>
					<time>0001-01-01T00:00:00Z</time>
				</trkpt>
				<trkpt lat="58.28006" lon="7.38014">
					<ele>222</ele>
					<time>0001-01-01T00:00:00Z</time>
				</trkpt>
				<trkpt lat="58.27978" lon="7.38136">
					<ele>226</ele>
					<time>0001-01-01T00:00:00Z</time>
				</trkpt>
				<trkpt lat="58.27962" lon="7.38220">
					<ele>225</ele>
					<time>0001-01-01T00:00:00Z</time>
				</trkpt>
				<trkpt lat="58.27951" lon="7.38249">
					<ele>225</ele>
					<time>0001-01-01T00:00:00Z</time>
				</trkpt>
				<trkpt lat="58.27863" lon="7.38438">
					<ele>223</ele>
					<time>0001-01-01T00:00:00Z</time>
				</trkpt>
				<trkpt lat="58.27811" lon="7.38645">
					<ele>222</ele>
					<time>0001-01-01T00:00:00Z</time>
				</trkpt>
				<trkpt lat="58.27810" lon="7.38687">
					<ele>222</ele>
					<time>0001-01-01T00:00:00Z</time>
				</trkpt>
				<trkpt lat="58.27825" lon="7.38850">
					<ele>224</ele>
					<time>0001-01-01T00:00:00Z</time>
				</trkpt>
				<trkpt lat="58.27817" lon="7.38925">
					<ele>225</ele>
					<time>0001-01-01T00:00:00Z</time>
				</trkpt>
				<trkpt lat="58.27796" lon="7.38972">
					<ele>225</ele>
					<time>0001-01-01T00:00:00Z</time>
				</trkpt>
				<trkpt lat="58.27777" lon="7.39008">
					<ele>224</ele>
					<time>0001-01-01T00:00:00Z</time>
				</trkpt>
				<trkpt lat="58.27763" lon="7.39124">
					<ele>224</ele>
					<time>0001-01-01T00:00:00Z</time>
				</trkpt>
				<trkpt lat="58.27767" lon="7.39150">
					<ele>224</ele>
					<time>0001-01-01T00:00:00Z</time>
				</trkpt>
				<trkpt lat="58.27797" lon="7.39289">
					<ele>225</ele>
					<time>0001-01-01T00:00:00Z</time>
				</trkpt>
				<trkpt lat="58.27799" lon="7.39315">
					<ele>225</ele>
					<time>0001-01-01T00:00:00Z</time>
				</trkpt>
				<trkpt lat="58.27790" lon="7.39377">
					<ele>224</ele>
					<time>0001-01-01T00:00:00Z</time>
				</trkpt>
				<trkpt lat="58.27737" lon="7.39493">
					<ele>225</ele>
					<time>0001-01-01T00:00:00Z</time>
				</trkpt>
				<trkpt lat="58.27710" lon="7.39684">
					<ele>226</ele>
					<time>0001-01-01T00:00:00Z</time>
				</trkpt>
				<trkpt lat="58.27710" lon="7.39719">
					<ele>227</ele>
					<time>0001-01-01T00:00:00Z</time>
				</trkpt>
				<trkpt lat="58.27727" lon="7.39955">
					<ele>232</ele>
					<time>0001-01-01T00:00:00Z</time>
				</trkpt>
				<trkpt lat="58.27703" lon="7.40138">
					<ele>232</ele>
					<time>0001-01-01T00:00:00Z</time>
				</trkpt>
				<trkpt lat="58.27654" lon="7.40302">
					<ele>234</ele>
					<time>0001-01-01T00:00:00Z</time>
				</trkpt>
				<trkpt lat="58.27652" lon="7.40312">
					<ele>234</ele>
					<time>0001-01-01T00:00:00Z</time>
				</trkpt>
				<trkpt lat="58.27643" lon="7.40495">
					<ele>234</ele>
					<time>0001-01-01T00:00:00Z</time>
				</trkpt>
				<trkpt lat="58.27618" lon="7.40728">
					<ele>233</ele>
					<time>0001-01-01T00:00:00Z</time>
				</trkpt>
				<trkpt lat="58.27576" lon="7.40869">
					<ele>232</ele>
					<time>0001-01-01T00:00:00Z</time>
				</trkpt>
				<trkpt lat="58.27507" lon="7.40984">
					<ele>236</ele>
					<time>0001-01-01T00:00:00Z</time>
				</trkpt>
				<trkpt lat="58.27443" lon="7.41147">
					<ele>235</ele>
					<time>0001-01-01T00:00:00Z</time>
				</trkpt>
				<trkpt lat="58.27384" lon="7.41306">
					<ele>236</ele>
					<time>0001-01-01T00:00:00Z</time>
				</trkpt>
				<trkpt lat="58.27351" lon="7.41536">
					<ele>233</ele>
					<time>0001-01-01T00:00:00Z</time>
				</trkpt>
				<trkpt lat="58.27324" lon="7.41726">
					<ele>231</ele>
					<time>0001-01-01T00:00:00Z</time>
				</trkpt>
				<trkpt lat="58.27283" lon="7.41942">
					<ele>229</ele>
					<time>0001-01-01T00:00:00Z</time>
				</trkpt>
				<trkpt lat="58.27259" lon="7.42111">
					<ele>228</ele>
					<time>0001-01-01T00:00:00Z</time>
				</trkpt>
				<trkpt lat="58.27224" lon="7.42325">
					<ele>231</ele>
					<time>0001-01-01T00:00:00Z</time>
				</trkpt>
				<trkpt lat="58.27209" lon="7.42493">
					<ele>229</ele>
					<time>0001-01-01T00:00:00Z</time>
				</trkpt>
				<trkpt lat="58.27176" lon="7.42718">
					<ele>225</ele>
					<time>0001-01-01T00:00:00Z</time>
				</trkpt>
				<trkpt lat="58.27138" lon="7.42971">
					<ele>221</ele>
					<time>0001-01-01T00:00:00Z</time>
				</trkpt>
				<trkpt lat="58.27077" lon="7.43289">
					<ele>219</ele>
					<time>0001-01-01T00:00:00Z</time>
				</trkpt>
				<trkpt lat="58.27032" lon="7.43543">
					<ele>216</ele>
					<time>0001-01-01T00:00:00Z</time>
				</trkpt>
				<trkpt lat="58.26980" lon="7.43845">
					<ele>207</ele>
					<time>0001-01-01T00:00:00Z</time>
				</trkpt>
				<trkpt lat="58.26951" lon="7.44078">
					<ele>206</ele>
					<time>0001-01-01T00:00:00Z</time>
				</trkpt>
				<trkpt lat="58.26919" lon="7.44341">
					<ele>202</ele>
					<time>0001-01-01T00:00:00Z</time>
				</trkpt>
				<trkpt lat="58.26882" lon="7.44601">
					<ele>201</ele>
					<time>0001-01-01T00:00:00Z</time>
				</trkpt>
				<trkpt lat="58.26819" lon="7.44807">
					<ele>201</ele>
					<time>0001-01-01T00:00:00Z</time>
				</trkpt>
				<trkpt lat="58.26769" lon="7.44925">
					<ele>199</ele>
					<time>0001-01-01T00:00:00Z</time>
				</trkpt>
				<trkpt lat="58.26758" lon="7.44963">
					<ele>199</ele>
					<time>0001-01-01T00:00:00Z</time>
				</trkpt>
				<trkpt lat="58.26759" lon="7.45027">
					<ele>198</ele>
					<time>0001-01-01T00:00:00Z</time>
				</trkpt>
				<trkpt lat="58.26776" lon="7.45157">
					<ele>197</ele>
					<time>0001-01-01T00:00:00Z</time>
				</trkpt>
				<trkpt lat="58.26745" lon="7.45370">
					<ele>190</ele>
					<time>0001-01-01T00:00:00Z</time>
				</trkpt>
				<trkpt lat="58.26679" lon="7.45535">
					<ele>186</ele>
					<time>0001-01-01T00:00:00Z</time>
				</trkpt>
				<trkpt lat="58.26646" lon="7.45737">
					<ele>182</ele>
					<time>0001-01-01T00:00:00Z</time>
				</trkpt>
				<trkpt lat="58.26577" lon="7.45997">
					<ele>178</ele>
					<time>0001-01-01T00:00:00Z</time>
				</trkpt>
				<trkpt lat="58.26478" lon="7.46173">
					<ele>174</ele>
					<time>0001-01-01T00:00:00Z</time>
				</trkpt>
				<trkpt lat="58.26455" lon="7.46214">
					<ele>171</ele>
					<time>0001-01-01T00:00:00Z</time>
				</trkpt>
				<trkpt lat="58.26430" lon="7.46328">
					<ele>165</ele>
					<time>0001-01-01T00:00:00Z</time>
				</trkpt>
				<trkpt lat="58.26421" lon="7.46390">
					<ele>162</ele>
					<time>0001-01-01T00:00:00Z</time>
				</trkpt>
				<trkpt lat="58.26386" lon="7.46478">
					<ele>158</ele>
					<time>0001-01-01T00:00:00Z</time>
				</trkpt>
				<trkpt lat="58.26307" lon="7.46678">
					<ele>147</ele>
					<time>0001-01-01T00:00:00Z</time>
				</trkpt>
				<trkpt lat="58.26270" lon="7.46924">
					<ele>138</ele>
					<time>0001-01-01T00:00:00Z</time>
				</trkpt>
				<trkpt lat="58.26197" lon="7.47114">
					<ele>130</ele>
					<time>0001-01-01T00:00:00Z</time>
				</trkpt>
				<trkpt lat="58.26114" lon="7.47361">
					<ele>118</ele>
					<time>0001-01-01T00:00:00Z</time>
				</trkpt>
				<trkpt lat="58.26060" lon="7.47533">
					<ele>111</ele>
					<time>0001-01-01T00:00:00Z</time>
				</trkpt>
				<trkpt lat="58.26022" lon="7.47600">
					<ele>109</ele>
					<time>0001-01-01T00:00:00Z</time>
				</trkpt>
				<trkpt lat="58.25998" lon="7.47714">
					<ele>107</ele>
					<time>0001-01-01T00:00:00Z</time>
				</trkpt>
				<trkpt lat="58.25994" lon="7.47789">
					<ele>106</ele>
					<time>0001-01-01T00:00:00Z</time>
				</trkpt>
				<trkpt lat="58.25937" lon="7.48029">
					<ele>97</ele>
					<time>0001-01-01T00:00:00Z</time>
				</trkpt>
				<trkpt lat="58.25927" lon="7.48073">
					<ele>95</ele>
					<time>0001-01-01T00:00:00Z</time>
				</trkpt>
				<trkpt lat="58.25890" lon="7.48170">
					<ele>93</ele>
					<time>0001-01-01T00:00:00Z</time>
				</trkpt>
				<trkpt lat="58.25750" lon="7.48459">
					<ele>87</ele>
					<time>0001-01-01T00:00:00Z</time>
				</trkpt>
				<trkpt lat="58.25722" lon="7.48511">
					<ele>81</ele>
					<time>0001-01-01T00:00:00Z</time>
				</trkpt>
				<trkpt lat="58.25710" lon="7.48630">
					<ele>71</ele>
					<time>0001-01-01T00:00:00Z</time>
				</trkpt>
				<trkpt lat="58.25720" lon="7.48679">
					<ele>68</ele>
					<time>0001-01-01T00:00:00Z</time>
				</trkpt>
				<trkpt lat="58.25712" lon="7.48823">
					<ele>60</ele>
					<time>0001-01-01T00:00:00Z</time>
				</trkpt>
				<trkpt lat="58.25703" lon="7.48840">
					<ele>59</ele>
					<time>0001-01-01T00:00:00Z</time>
				</trkpt>
				<trkpt lat="58.25626" lon="7.48987">
					<ele>54</ele>
					<time>0001-01-01T00:00:00Z</time>
				</trkpt>
				<trkpt lat="58.25558" lon="7.49178">
					<ele>52</ele>
					<time>0001-01-01T00:00:00Z</time>
				</trkpt>
				<trkpt lat="58.25514" lon="7.49301">
					<ele>51</ele>
					<time>0001-01-01T00:00:00Z</time>
				</trkpt>
				<trkpt lat="58.25488" lon="7.49393">
					<ele>51</ele>
					<time>0001-01-01T00:00:00Z</time>
				</trkpt>
				<trkpt lat="58.25454" lon="7.49472">
					<ele>53</ele>
					<time>0001-01-01T00:00:00Z</time>
				</trkpt>
				<trkpt lat="58.25367" lon="7.49626">
					<ele>52</ele>
					<time>0001-01-01T00:00:00Z</time>
				</trkpt>
				<trkpt lat="58.25324" lon="7.49728">
					<ele>51</ele>
					<time>0001-01-01T00:00:00Z</time>
				</trkpt>
				<trkpt lat="58.25267" lon="7.49795">
					<ele>51</ele>
					<time>0001-01-01T00:00:00Z</time>
				</trkpt>
				<trkpt lat="58.25217" lon="7.49801">
					<ele>51</ele>
					<time>0001-01-01T00:00:00Z</time>
				</trkpt>
				<trkpt lat="58.25198" lon="7.49794">
					<ele>51</ele>
					<time>0001-01-01T00:00:00Z</time>
				</trkpt>
				<trkpt lat="58.25109" lon="7.49691">
					<ele>50</ele>
					<time>0001-01-01T00:00:00Z</time>
				</trkpt>
				<trkpt lat="58.25060" lon="7.49663">
					<ele>48</ele>
					<time>0001-01-01T00:00:00Z</time>
				</trkpt>
				<trkpt lat="58.25059" lon="7.49663">
					<ele>46</ele>
					<time>0001-01-01T00:00:00Z</time>
				</trkpt>
				<trkpt lat="58.25056" lon="7.49661">
					<ele>51</ele>
					<time>0001-01-01T00:00:00Z</time>
				</trkpt>
				<trkpt lat="58.25020" lon="7.49665">
					<ele>47</ele>
					<time>0001-01-01T00:00:00Z</time>
				</trkpt>
				<trkpt lat="58.24944" lon="7.49710">
					<ele>44</ele>
					<time>0001-01-01T00:00:00Z</time>
				</trkpt>
				<trkpt lat="58.24864" lon="7.49794">
					<ele>40</ele>
					<time>0001-01-01T00:00:00Z</time>
				</trkpt>
				<trkpt lat="58.24742" lon="7.49923">
					<ele>40</ele>
					<time>0001-01-01T00:00:00Z</time>
				</trkpt>
				<trkpt lat="58.24660" lon="7.49965">
					<ele>39</ele>
					<time>0001-01-01T00:00:00Z</time>
				</trkpt>
				<trkpt lat="58.24574" lon="7.49945">
					<ele>38</ele>
					<time>0001-01-01T00:00:00Z</time>
				</trkpt>
				<trkpt lat="58.24524" lon="7.49978">
					<ele>39</ele>
					<time>0001-01-01T00:00:00Z</time>
				</trkpt>
				<trkpt lat="58.24496" lon="7.50031">
					<ele>39</ele>
					<time>0001-01-01T00:00:00Z</time>
				</trkpt>
				<trkpt lat="58.24463" lon="7.50213">
					<ele>39</ele>
					<time>0001-01-01T00:00:00Z</time>
				</trkpt>
				<trkpt lat="58.24448" lon="7.50502">
					<ele>38</ele>
					<time>0001-01-01T00:00:00Z</time>
				</trkpt>
				<trkpt lat="58.24449" lon="7.50879">
					<ele>40</ele>
					<time>0001-01-01T00:00:00Z</time>
				</trkpt>
				<trkpt lat="58.24443" lon="7.51140">
					<ele>44</ele>
					<time>0001-01-01T00:00:00Z</time>
				</trkpt>
				<trkpt lat="58.24442" lon="7.51182">
					<ele>45</ele>
					<time>0001-01-01T00:00:00Z</time>
				</trkpt>
				<trkpt lat="58.24462" lon="7.51214">
					<ele>46</ele>
					<time>0001-01-01T00:00:00Z</time>
				</trkpt>
				<trkpt lat="58.24517" lon="7.51227">
					<ele>48</ele>
					<time>0001-01-01T00:00:00Z</time>
				</trkpt>
				<trkpt lat="58.24529" lon="7.51234">
					<ele>48</ele>
					<time>0001-01-01T00:00:00Z</time>
				</trkpt>
				<trkpt lat="58.24598" lon="7.51346">
					<ele>53</ele>
					<time>0001-01-01T00:00:00Z</time>
				</trkpt>
				<trkpt lat="58.24632" lon="7.51444">
					<ele>58</ele>
					<time>0001-01-01T00:00:00Z</time>
				</trkpt>
				<trkpt lat="58.24733" lon="7.51536">
					<ele>64</ele>
					<time>0001-01-01T00:00:00Z</time>
				</trkpt>
				<trkpt lat="58.24746" lon="7.51539">
					<ele>64</ele>
					<time>0001-01-01T00:00:00Z</time>
				</trkpt>
				<trkpt lat="58.24801" lon="7.51589">
					<ele>65</ele>
					<time>0001-01-01T00:00:00Z</time>
				</trkpt>
				<trkpt lat="58.24800" lon="7.51588">
					<ele>65</ele>
					<time>0001-01-01T00:00:00Z</time>
				</trkpt>
				<trkpt lat="58.25073" lon="7.51686">
					<ele>62</ele>
					<time>0001-01-01T00:00:00Z</time>
				</trkpt>
				<trkpt lat="58.25242" lon="7.51759">
					<ele>60</ele>
					<time>0001-01-01T00:00:00Z</time>
				</trkpt>
				<trkpt lat="58.25245" lon="7.51760">
					<ele>60</ele>
					<time>0001-01-01T00:00:00Z</time>
				</trkpt>
				<trkpt lat="58.25457" lon="7.51815">
					<ele>60</ele>
					<time>0001-01-01T00:00:00Z</time>
				</trkpt>
				<trkpt lat="58.25449" lon="7.51901">
					<ele>62</ele>
					<time>0001-01-01T00:00:00Z</time>
				</trkpt>
				<trkpt lat="58.25482" lon="7.51945">
					<ele>64</ele>
					<time>0001-01-01T00:00:00Z</time>
				</trkpt>
				<trkpt lat="58.25566" lon="7.51949">
					<ele>64</ele>
					<time>0001-01-01T00:00:00Z</time>
				</trkpt>
				<trkpt lat="58.25748" lon="7.51979">
					<ele>66</ele>
					<time>0001-01-01T00:00:00Z</time>
				</trkpt>
				<trkpt lat="58.25785" lon="7.51992">
					<ele>67</ele>
					<time>0001-01-01T00:00:00Z</time>
				</trkpt>
				<trkpt lat="58.25811" lon="7.52013">
					<ele>66</ele>
					<time>0001-01-01T00:00:00Z</time>
				</trkpt>
				<trkpt lat="58.25872" lon="7.52040">
					<ele>67</ele>
					<time>0001-01-01T00:00:00Z</time>
				</trkpt>
				<trkpt lat="58.25949" lon="7.52115">
					<ele>67</ele>
					<time>0001-01-01T00:00:00Z</time>
				</trkpt>
				<trkpt lat="58.26000" lon="7.52101">
					<ele>66</ele>
					<time>0001-01-01T00:00:00Z</time>
				</trkpt>
				<trkpt lat="58.26063" lon="7.52040">
					<ele>65</ele>
					<time>0001-01-01T00:00:00Z</time>
				</trkpt>
				<trkpt lat="58.26141" lon="7.52047">
					<ele>69</ele>
					<time>0001-01-01T00:00:00Z</time>
				</trkpt>
				<trkpt lat="58.26216" lon="7.52114">
					<ele>74</ele>
					<time>0001-01-01T00:00:00Z</time>
				</trkpt>
				<trkpt lat="58.26250" lon="7.52185">
					<ele>75</ele>
					<time>0001-01-01T00:00:00Z</time>
				</trkpt>
				<trkpt lat="58.26282" lon="7.52303">
					<ele>74</ele>
					<time>0001-01-01T00:00:00Z</time>
				</trkpt>
				<trkpt lat="58.26324" lon="7.52414">
					<ele>81</ele>
					<time>0001-01-01T00:00:00Z</time>
				</trkpt>
				<trkpt lat="58.26358" lon="7.52499">
					<ele>84</ele>
					<time>0001-01-01T00:00:00Z</time>
				</trkpt>
				<trkpt lat="58.26380" lon="7.52594">
					<ele>83</ele>
					<time>0001-01-01T00:00:00Z</time>
				</trkpt>
				<trkpt lat="58.26421" lon="7.52711">
					<ele>89</ele>
					<time>0001-01-01T00:00:00Z</time>
				</trkpt>
				<trkpt lat="58.26466" lon="7.52834">
					<ele>96</ele>
					<time>0001-01-01T00:00:00Z</time>
				</trkpt>
				<trkpt lat="58.26507" lon="7.52975">
					<ele>102</ele>
					<time>0001-01-01T00:00:00Z</time>
				</trkpt>
				<trkpt lat="58.26563" lon="7.53083">
					<ele>109</ele>
					<time>0001-01-01T00:00:00Z</time>
				</trkpt>
				<trkpt lat="58.26601" lon="7.53178">
					<ele>114</ele>
					<time>0001-01-01T00:00:00Z</time>
				</trkpt>
				<trkpt lat="58.26651" lon="7.53273">
					<ele>120</ele>
					<time>0001-01-01T00:00:00Z</time>
				</trkpt>
				<trkpt lat="58.26696" lon="7.53383">
					<ele>124</ele>
					<time>0001-01-01T00:00:00Z</time>
				</trkpt>
				<trkpt lat="58.26744" lon="7.53500">
					<ele>127</ele>
					<time>0001-01-01T00:00:00Z</time>
				</trkpt>
				<trkpt lat="58.26817" lon="7.53612">
					<ele>134</ele>
					<time>0001-01-01T00:00:00Z</time>
				</trkpt>
				<trkpt lat="58.26942" lon="7.53765">
					<ele>148</ele>
					<time>0001-01-01T00:00:00Z</time>
				</trkpt>
				<trkpt lat="58.26989" lon="7.53852">
					<ele>153</ele>
					<time>0001-01-01T00:00:00Z</time>
				</trkpt>
				<trkpt lat="58.27027" lon="7.53994">
					<ele>161</ele>
					<time>0001-01-01T00:00:00Z</time>
				</trkpt>
				<trkpt lat="58.27045" lon="7.54137">
					<ele>168</ele>
					<time>0001-01-01T00:00:00Z</time>
				</trkpt>
				<trkpt lat="58.27053" lon="7.54240">
					<ele>173</ele>
					<time>0001-01-01T00:00:00Z</time>
				</trkpt>
				<trkpt lat="58.27077" lon="7.54319">
					<ele>178</ele>
					<time>0001-01-01T00:00:00Z</time>
				</trkpt>
				<trkpt lat="58.27131" lon="7.54373">
					<ele>184</ele>
					<time>0001-01-01T00:00:00Z</time>
				</trkpt>
				<trkpt lat="58.27172" lon="7.54470">
					<ele>185</ele>
					<time>0001-01-01T00:00:00Z</time>
				</trkpt>
				<trkpt lat="58.27208" lon="7.54582">
					<ele>187</ele>
					<time>0001-01-01T00:00:00Z</time>
				</trkpt>
				<trkpt lat="58.27251" lon="7.54681">
					<ele>194</ele>
					<time>0001-01-01T00:00:00Z</time>
				</trkpt>
				<trkpt lat="58.27247" lon="7.54774">
					<ele>202</ele>
					<time>0001-01-01T00:00:00Z</time>
				</trkpt>
				<trkpt lat="58.27214" lon="7.54881">
					<ele>207</ele>
					<time>0001-01-01T00:00:00Z</time>
				</trkpt>
				<trkpt lat="58.27167" lon="7.54951">
					<ele>210</ele>
					<time>0001-01-01T00:00:00Z</time>
				</trkpt>
				<trkpt lat="58.27150" lon="7.55057">
					<ele>216</ele>
					<time>0001-01-01T00:00:00Z</time>
				</trkpt>
				<trkpt lat="58.27148" lon="7.55061">
					<ele>216</ele>
					<time>0001-01-01T00:00:00Z</time>
				</trkpt>
				<trkpt lat="58.27149" lon="7.55099">
					<ele>216</ele>
					<time>0001-01-01T00:00:00Z</time>
				</trkpt>
				<trkpt lat="58.27145" lon="7.55227">
					<ele>221</ele>
					<time>0001-01-01T00:00:00Z</time>
				</trkpt>
				<trkpt lat="58.27160" lon="7.55374">
					<ele>221</ele>
					<time>0001-01-01T00:00:00Z</time>
				</trkpt>
				<trkpt lat="58.27165" lon="7.55394">
					<ele>221</ele>
					<time>0001-01-01T00:00:00Z</time>
				</trkpt>
				<trkpt lat="58.27195" lon="7.55485">
					<ele>225</ele>
					<time>0001-01-01T00:00:00Z</time>
				</trkpt>
				<trkpt lat="58.27236" lon="7.55597">
					<ele>231</ele>
					<time>0001-01-01T00:00:00Z</time>
				</trkpt>
				<trkpt lat="58.27247" lon="7.55720">
					<ele>233</ele>
					<time>0001-01-01T00:00:00Z</time>
				</trkpt>
				<trkpt lat="58.27270" lon="7.55827">
					<ele>240</ele>
					<time>0001-01-01T00:00:00Z</time>
				</trkpt>
				<trkpt lat="58.27271" lon="7.55952">
					<ele>244</ele>
					<time>0001-01-01T00:00:00Z</time>
				</trkpt>
				<trkpt lat="58.27261" lon="7.56109">
					<ele>242</ele>
					<time>0001-01-01T00:00:00Z</time>
				</trkpt>
				<trkpt lat="58.27247" lon="7.56178">
					<ele>241</ele>
					<time>0001-01-01T00:00:00Z</time>
				</trkpt>
				<trkpt lat="58.27229" lon="7.56490">
					<ele>235</ele>
					<time>0001-01-01T00:00:00Z</time>
				</trkpt>
				<trkpt lat="58.27214" lon="7.56733">
					<ele>233</ele>
					<time>0001-01-01T00:00:00Z</time>
				</trkpt>
				<trkpt lat="58.27220" lon="7.56807">
					<ele>232</ele>
					<time>0001-01-01T00:00:00Z</time>
				</trkpt>
				<trkpt lat="58.27252" lon="7.56939">
					<ele>231</ele>
					<time>0001-01-01T00:00:00Z</time>
				</trkpt>
				<trkpt lat="58.27246" lon="7.57065">
					<ele>227</ele>
					<time>0001-01-01T00:00:00Z</time>
				</trkpt>
				<trkpt lat="58.27207" lon="7.57180">
					<ele>224</ele>
					<time>0001-01-01T00:00:00Z</time>
				</trkpt>
				<trkpt lat="58.27193" lon="7.57251">
					<ele>224</ele>
					<time>0001-01-01T00:00:00Z</time>
				</trkpt>
				<trkpt lat="58.27229" lon="7.57605">
					<ele>220</ele>
					<time>0001-01-01T00:00:00Z</time>
				</trkpt>
				<trkpt lat="58.27261" lon="7.57910">
					<ele>216</ele>
					<time>0001-01-01T00:00:00Z</time>
				</trkpt>
				<trkpt lat="58.27306" lon="7.58247">
					<ele>214</ele>
					<time>0001-01-01T00:00:00Z</time>
				</trkpt>
				<trkpt lat="58.27391" lon="7.58543">
					<ele>215</ele>
					<time>0001-01-01T00:00:00Z</time>
				</trkpt>
				<trkpt lat="58.27483" lon="7.58866">
					<ele>216</ele>
					<time>0001-01-01T00:00:00Z</time>
				</trkpt>
				<trkpt lat="58.27538" lon="7.59098">
					<ele>217</ele>
					<time>0001-01-01T00:00:00Z</time>
				</trkpt>
				<trkpt lat="58.27575" lon="7.59279">
					<ele>217</ele>
					<time>0001-01-01T00:00:00Z</time>
				</trkpt>
				<trkpt lat="58.27626" lon="7.59524">
					<ele>218</ele>
					<time>0001-01-01T00:00:00Z</time>
				</trkpt>
				<trkpt lat="58.27695" lon="7.59762">
					<ele>220</ele>
					<time>0001-01-01T00:00:00Z</time>
				</trkpt>
				<trkpt lat="58.27722" lon="7.59837">
					<ele>220</ele>
					<time>0001-01-01T00:00:00Z</time>
				</trkpt>
				<trkpt lat="58.27798" lon="7.60003">
					<ele>223</ele>
					<time>0001-01-01T00:00:00Z</time>
				</trkpt>
				<trkpt lat="58.27887" lon="7.60204">
					<ele>224</ele>
					<time>0001-01-01T00:00:00Z</time>
				</trkpt>
				<trkpt lat="58.27993" lon="7.60387">
					<ele>227</ele>
					<time>0001-01-01T00:00:00Z</time>
				</trkpt>
				<trkpt lat="58.28040" lon="7.60515">
					<ele>231</ele>
					<time>0001-01-01T00:00:00Z</time>
				</trkpt>
				<trkpt lat="58.28116" lon="7.60662">
					<ele>234</ele>
					<time>0001-01-01T00:00:00Z</time>
				</trkpt>
				<trkpt lat="58.28205" lon="7.60805">
					<ele>238</ele>
					<time>0001-01-01T00:00:00Z</time>
				</trkpt>
				<trkpt lat="58.28213" lon="7.60824">
					<ele>238</ele>
					<time>0001-01-01T00:00:00Z</time>
				</trkpt>
				<trkpt lat="58.28227" lon="7.60889">
					<ele>239</ele>
					<time>0001-01-01T00:00:00Z</time>
				</trkpt>
				<trkpt lat="58.28233" lon="7.61142">
					<ele>238</ele>
					<time>0001-01-01T00:00:00Z</time>
				</trkpt>
				<trkpt lat="58.28230" lon="7.61246">
					<ele>233</ele>
					<time>0001-01-01T00:00:00Z</time>
				</trkpt>
				<trkpt lat="58.28250" lon="7.61239">
					<ele>233</ele>
					<time>0001-01-01T00:00:00Z</time>
				</trkpt>
				<trkpt lat="58.28327" lon="7.61137">
					<ele>228</ele>
					<time>0001-01-01T00:00:00Z</time>
				</trkpt>
				<trkpt lat="58.28379" lon="7.61075">
					<ele>230</ele>
					<time>0001-01-01T00:00:00Z</time>
				</trkpt>
				<trkpt lat="58.28400" lon="7.61025">
					<ele>228</ele>
					<time>0001-01-01T00:00:00Z</time>
				</trkpt>
				<trkpt lat="58.28480" lon="7.60767">
					<ele>226</ele>
					<time>0001-01-01T00:00:00Z</time>
				</trkpt>
				<trkpt lat="58.28560" lon="7.60592">
					<ele>226</ele>
					<time>0001-01-01T00:00:00Z</time>
				</trkpt>
				<trkpt lat="58.28611" lon="7.60472">
					<ele>224</ele>
					<time>0001-01-01T00:00:00Z</time>
				</trkpt>
				<trkpt lat="58.28640" lon="7.60471">
					<ele>223</ele>
					<time>0001-01-01T00:00:00Z</time>
				</trkpt>
				<trkpt lat="58.28660" lon="7.60540">
					<ele>226</ele>
					<time>0001-01-01T00:00:00Z</time>
				</trkpt>
				<trkpt lat="58.28653" lon="7.60588">
					<ele>227</ele>
					<time>0001-01-01T00:00:00Z</time>
				</trkpt>
				<trkpt lat="58.28648" lon="7.60590">
					<ele>233</ele>
					<time>0001-01-01T00:00:00Z</time>
				</trkpt>
				<trkpt lat="58.28645" lon="7.60602">
					<ele>230</ele>
					<time>0001-01-01T00:00:00Z</time>
				</trkpt>
				<trkpt lat="58.28647" lon="7.60602">
					<ele>220</ele>
					<time>0001-01-01T00:00:00Z</time>
				</trkpt>
				<trkpt lat="58.28641" lon="7.60602">
					<ele>224</ele>
					<time>0001-01-01T00:00:00Z</time>
				</trkpt>
				<trkpt lat="58.28647" lon="7.60603">
					<ele>227</ele>
					<time>0001-01-01T00:00:00Z</time>
				</trkpt>
				<trkpt lat="58.28648" lon="7.60603">
					<ele>225</ele>
					<time>0001-01-01T00:00:00Z</time>
				</trkpt>
				<trkpt lat="58.28648" lon="7.60602">
					<ele>227</ele>
					<time>0001-01-01T00:00:00Z</time>
				</trkpt>
				<trkpt lat="58.28657" lon="7.60557">
					<ele>225</ele>
					<time>0001-01-01T00:00:00Z</time>
				</trkpt>
				<trkpt lat="58.28657" lon="7.60549">
					<ele>225</ele>
					<time>0001-01-01T00:00:00Z</time>
				</trkpt>
				<trkpt lat="58.28641" lon="7.60492">
					<ele>224</ele>
					<time>0001-01-01T00:00:00Z</time>
				</trkpt>
				<trkpt lat="58.28622" lon="7.60469">
					<ele>226</ele>
					<time>0001-01-01T00:00:00Z</time>
				</trkpt>
				<trkpt lat="58.28604" lon="7.60486">
					<ele>227</ele>
					<time>0001-01-01T00:00:00Z</time>
				</trkpt>
				<trkpt lat="58.28551" lon="7.60615">
					<ele>229</ele>
					<time>0001-01-01T00:00:00Z</time>
				</trkpt>
				<trkpt lat="58.28478" lon="7.60782">
					<ele>227</ele>
					<time>0001-01-01T00:00:00Z</time>
				</trkpt>
				<trkpt lat="58.28396" lon="7.61044">
					<ele>226</ele>
					<time>0001-01-01T00:00:00Z</time>
				</trkpt>
				<trkpt lat="58.28382" lon="7.61085">
					<ele>227</ele>
					<time>0001-01-01T00:00:00Z</time>
				</trkpt>
				<trkpt lat="58.28333" lon="7.61147">
					<ele>228</ele>
					<time>0001-01-01T00:00:00Z</time>
				</trkpt>
				<trkpt lat="58.28260" lon="7.61244">
					<ele>230</ele>
					<time>0001-01-01T00:00:00Z</time>
				</trkpt>
				<trkpt lat="58.28256" lon="7.61248">
					<ele>230</ele>
					<time>0001-01-01T00:00:00Z</time>
				</trkpt>
				<trkpt lat="58.28241" lon="7.61256">
					<ele>230</ele>
					<time>0001-01-01T00:00:00Z</time>
				</trkpt>
				<trkpt lat="58.28220" lon="7.61256">
					<ele>230</ele>
					<time>0001-01-01T00:00:00Z</time>
				</trkpt>
				<trkpt lat="58.28205" lon="7.61279">
					<ele>228</ele>
					<time>0001-01-01T00:00:00Z</time>
				</trkpt>
				<trkpt lat="58.28139" lon="7.61406">
					<ele>226</ele>
					<time>0001-01-01T00:00:00Z</time>
				</trkpt>
				<trkpt lat="58.28004" lon="7.61627">
					<ele>228</ele>
					<time>0001-01-01T00:00:00Z</time>
				</trkpt>
				<trkpt lat="58.27969" lon="7.61695">
					<ele>229</ele>
					<time>0001-01-01T00:00:00Z</time>
				</trkpt>
				<trkpt lat="58.27930" lon="7.61815">
					<ele>228</ele>
					<time>0001-01-01T00:00:00Z</time>
				</trkpt>
				<trkpt lat="58.27830" lon="7.61998">
					<ele>223</ele>
					<time>0001-01-01T00:00:00Z</time>
				</trkpt>
				<trkpt lat="58.27672" lon="7.62427">
					<ele>226</ele>
					<time>0001-01-01T00:00:00Z</time>
				</trkpt>
				<trkpt lat="58.27663" lon="7.62611">
					<ele>224</ele>
					<time>0001-01-01T00:00:00Z</time>
				</trkpt>
				<trkpt lat="58.27601" lon="7.63004">
					<ele>215</ele>
					<time>0001-01-01T00:00:00Z</time>
				</trkpt>
				<trkpt lat="58.27523" lon="7.63372">
					<ele>202</ele>
					<time>0001-01-01T00:00:00Z</time>
				</trkpt>
				<trkpt lat="58.27460" lon="7.63674">
					<ele>197</ele>
					<time>0001-01-01T00:00:00Z</time>
				</trkpt>
				<trkpt lat="58.27406" lon="7.63916">
					<ele>198</ele>
					<time>0001-01-01T00:00:00Z</time>
				</trkpt>
				<trkpt lat="58.27300" lon="7.64182">
					<ele>195</ele>
					<time>0001-01-01T00:00:00Z</time>
				</trkpt>
				<trkpt lat="58.27254" lon="7.64390">
					<ele>195</ele>
					<time>0001-01-01T00:00:00Z</time>
				</trkpt>
				<trkpt lat="58.27220" lon="7.64620">
					<ele>196</ele>
					<time>0001-01-01T00:00:00Z</time>
				</trkpt>
				<trkpt lat="58.27213" lon="7.64790">
					<ele>192</ele>
					<time>0001-01-01T00:00:00Z</time>
				</trkpt>
				<trkpt lat="58.27182" lon="7.64954">
					<ele>191</ele>
					<time>0001-01-01T00:00:00Z</time>
				</trkpt>
				<trkpt lat="58.27148" lon="7.65137">
					<ele>190</ele>
					<time>0001-01-01T00:00:00Z</time>
				</trkpt>
				<trkpt lat="58.27143" lon="7.65177">
					<ele>190</ele>
					<time>0001-01-01T00:00:00Z</time>
				</trkpt>
				<trkpt lat="58.27093" lon="7.65365">
					<ele>191</ele>
					<time>0001-01-01T00:00:00Z</time>
				</trkpt>
				<trkpt lat="58.27056" lon="7.65591">
					<ele>190</ele>
					<time>0001-01-01T00:00:00Z</time>
				</trkpt>
				<trkpt lat="58.27013" lon="7.65839">
					<ele>190</ele>
					<time>0001-01-01T00:00:00Z</time>
				</trkpt>
				<trkpt lat="58.27002" lon="7.65903">
					<ele>190</ele>
					<time>0001-01-01T00:00:00Z</time>
				</trkpt>
				<trkpt lat="58.26971" lon="7.65957">
					<ele>191</ele>
					<time>0001-01-01T00:00:00Z</time>
				</trkpt>
				<trkpt lat="58.26936" lon="7.65971">
					<ele>194</ele>
					<time>0001-01-01T00:00:00Z</time>
				</trkpt>
				<trkpt lat="58.26870" lon="7.65943">
					<ele>197</ele>
					<time>0001-01-01T00:00:00Z</time>
				</trkpt>
				<trkpt lat="58.26794" lon="7.65925">
					<ele>202</ele>
					<time>0001-01-01T00:00:00Z</time>
				</trkpt>
				<trkpt lat="58.26703" lon="7.65900">
					<ele>207</ele>
					<time>0001-01-01T00:00:00Z</time>
				</trkpt>
				<trkpt lat="58.26623" lon="7.65869">
					<ele>211</ele>
					<time>0001-01-01T00:00:00Z</time>
				</trkpt>
				<trkpt lat="58.26568" lon="7.65847">
					<ele>217</ele>
					<time>0001-01-01T00:00:00Z</time>
				</trkpt>
				<trkpt lat="58.26512" lon="7.65799">
					<ele>223</ele>
					<time>0001-01-01T00:00:00Z</time>
				</trkpt>
				<trkpt lat="58.26460" lon="7.65774">
					<ele>227</ele>
					<time>0001-01-01T00:00:00Z</time>
				</trkpt>
				<trkpt lat="58.26372" lon="7.65748">
					<ele>233</ele>
					<time>0001-01-01T00:00:00Z</time>
				</trkpt>
				<trkpt lat="58.26284" lon="7.65718">
					<ele>243</ele>
					<time>0001-01-01T00:00:00Z</time>
				</trkpt>
				<trkpt lat="58.26250" lon="7.65716">
					<ele>245</ele>
					<time>0001-01-01T00:00:00Z</time>
				</trkpt>
				<trkpt lat="58.26243" lon="7.65722">
					<ele>245</ele>
					<time>0001-01-01T00:00:00Z</time>
				</trkpt>
				<trkpt lat="58.26229" lon="7.65739">
					<ele>245</ele>
					<time>0001-01-01T00:00:00Z</time>
				</trkpt>
				<trkpt lat="58.26129" lon="7.65946">
					<ele>249</ele>
					<time>0001-01-01T00:00:00Z</time>
				</trkpt>
				<trkpt lat="58.26118" lon="7.65969">
					<ele>248</ele>
					<time>0001-01-01T00:00:00Z</time>
				</trkpt>
				<trkpt lat="58.26005" lon="7.66130">
					<ele>241</ele>
					<time>0001-01-01T00:00:00Z</time>
				</trkpt>
				<trkpt lat="58.25991" lon="7.66150">
					<ele>241</ele>
					<time>0001-01-01T00:00:00Z</time>
				</trkpt>
				<trkpt lat="58.25925" lon="7.66353">
					<ele>236</ele>
					<time>0001-01-01T00:00:00Z</time>
				</trkpt>
				<trkpt lat="58.25841" lon="7.66589">
					<ele>238</ele>
					<time>0001-01-01T00:00:00Z</time>
				</trkpt>
				<trkpt lat="58.25720" lon="7.66828">
					<ele>241</ele>
					<time>0001-01-01T00:00:00Z</time>
				</trkpt>
				<trkpt lat="58.25608" lon="7.67017">
					<ele>237</ele>
					<time>0001-01-01T00:00:00Z</time>
				</trkpt>
				<trkpt lat="58.25489" lon="7.67252">
					<ele>232</ele>
					<time>0001-01-01T00:00:00Z</time>
				</trkpt>
				<trkpt lat="58.25350" lon="7.67582">
					<ele>229</ele>
					<time>0001-01-01T00:00:00Z</time>
				</trkpt>
				<trkpt lat="58.25236" lon="7.67853">
					<ele>223</ele>
					<time>0001-01-01T00:00:00Z</time>
				</trkpt>
				<trkpt lat="58.25110" lon="7.68126">
					<ele>222</ele>
					<time>0001-01-01T00:00:00Z</time>
				</trkpt>
				<trkpt lat="58.25022" lon="7.68331">
					<ele>219</ele>
					<time>0001-01-01T00:00:00Z</time>
				</trkpt>
				<trkpt lat="58.24942" lon="7.68482">
					<ele>219</ele>
					<time>0001-01-01T00:00:00Z</time>
				</trkpt>
				<trkpt lat="58.24870" lon="7.68601">
					<ele>218</ele>
					<time>0001-01-01T00:00:00Z</time>
				</trkpt>
				<trkpt lat="58.24743" lon="7.68856">
					<ele>214</ele>
					<time>0001-01-01T00:00:00Z</time>
				</trkpt>
				<trkpt lat="58.24622" lon="7.69079">
					<ele>207</ele>
					<time>0001-01-01T00:00:00Z</time>
				</trkpt>
				<trkpt lat="58.24553" lon="7.69122">
					<ele>202</ele>
					<time>0001-01-01T00:00:00Z</time>
				</trkpt>
				<trkpt lat="58.24517" lon="7.69149">
					<ele>201</ele>
					<time>0001-01-01T00:00:00Z</time>
				</trkpt>
				<trkpt lat="58.24440" lon="7.69252">
					<ele>198</ele>
					<time>0001-01-01T00:00:00Z</time>
				</trkpt>
				<trkpt lat="58.24418" lon="7.69305">
					<ele>195</ele>
					<time>0001-01-01T00:00:00Z</time>
				</trkpt>
				<trkpt lat="58.24371" lon="7.69380">
					<ele>189</ele>
					<time>0001-01-01T00:00:00Z</time>
				</trkpt>
				<trkpt lat="58.24302" lon="7.69578">
					<ele>178</ele>
					<time>0001-01-01T00:00:00Z</time>
				</trkpt>
				<trkpt lat="58.24285" lon="7.69642">
					<ele>175</ele>
					<time>0001-01-01T00:00:00Z</time>
				</trkpt>
				<trkpt lat="58.24248" lon="7.69697">
					<ele>172</ele>
					<time>0001-01-01T00:00:00Z</time>
				</trkpt>
				<trkpt lat="58.24207" lon="7.69734">
					<ele>169</ele>
					<time>0001-01-01T00:00:00Z</time>
				</trkpt>
				<trkpt lat="58.24149" lon="7.69866">
					<ele>163</ele>
					<time>0001-01-01T00:00:00Z</time>
				</trkpt>
				<trkpt lat="58.24074" lon="7.70128">
					<ele>154</ele>
					<time>0001-01-01T00:00:00Z</time>
				</trkpt>
				<trkpt lat="58.23971" lon="7.70456">
					<ele>146</ele>
					<time>0001-01-01T00:00:00Z</time>
				</trkpt>
				<trkpt lat="58.23887" lon="7.70653">
					<ele>143</ele>
					<time>0001-01-01T00:00:00Z</time>
				</trkpt>
				<trkpt lat="58.23788" lon="7.70853">
					<ele>139</ele>
					<time>0001-01-01T00:00:00Z</time>
				</trkpt>
				<trkpt lat="58.23706" lon="7.71040">
					<ele>139</ele>
					<time>0001-01-01T00:00:00Z</time>
				</trkpt>
				<trkpt lat="58.23652" lon="7.71228">
					<ele>137</ele>
					<time>0001-01-01T00:00:00Z</time>
				</trkpt>
				<trkpt lat="58.23641" lon="7.71253">
					<ele>136</ele>
					<time>0001-01-01T00:00:00Z</time>
				</trkpt>
				<trkpt lat="58.23621" lon="7.71287">
					<ele>135</ele>
					<time>0001-01-01T00:00:00Z</time>
				</trkpt>
				<trkpt lat="58.23495" lon="7.71433">
					<ele>133</ele>
					<time>0001-01-01T00:00:00Z</time>
				</trkpt>
				<trkpt lat="58.23473" lon="7.71481">
					<ele>133</ele>
					<time>0001-01-01T00:00:00Z</time>
				</trkpt>
				<trkpt lat="58.23406" lon="7.71717">
					<ele>129</ele>
					<time>0001-01-01T00:00:00Z</time>
				</trkpt>
				<trkpt lat="58.23325" lon="7.71981">
					<ele>127</ele>
					<time>0001-01-01T00:00:00Z</time>
				</trkpt>
				<trkpt lat="58.23098" lon="7.72448">
					<ele>127</ele>
					<time>0001-01-01T00:00:00Z</time>
				</trkpt>
				<trkpt lat="58.23029" lon="7.72549">
					<ele>126</ele>
					<time>0001-01-01T00:00:00Z</time>
				</trkpt>
				<trkpt lat="58.22988" lon="7.72659">
					<ele>125</ele>
					<time>0001-01-01T00:00:00Z</time>
				</trkpt>
				<trkpt lat="58.22899" lon="7.72872">
					<ele>121</ele>
					<time>0001-01-01T00:00:00Z</time>
				</trkpt>
				<trkpt lat="58.22783" lon="7.73014">
					<ele>120</ele>
					<time>0001-01-01T00:00:00Z</time>
				</trkpt>
				<trkpt lat="58.22755" lon="7.73049">
					<ele>120</ele>
					<time>0001-01-01T00:00:00Z</time>
				</trkpt>
				<trkpt lat="58.22585" lon="7.73322">
					<ele>115</ele>
					<time>0001-01-01T00:00:00Z</time>
				</trkpt>
				<trkpt lat="58.22431" lon="7.73550">
					<ele>109</ele>
					<time>0001-01-01T00:00:00Z</time>
				</trkpt>
				<trkpt lat="58.22355" lon="7.73774">
					<ele>106</ele>
					<time>0001-01-01T00:00:00Z</time>
				</trkpt>
				<trkpt lat="58.22193" lon="7.74158">
					<ele>104</ele>
					<time>0001-01-01T00:00:00Z</time>
				</trkpt>
				<trkpt lat="58.22048" lon="7.74422">
					<ele>102</ele>
					<time>0001-01-01T00:00:00Z</time>
				</trkpt>
				<trkpt lat="58.21956" lon="7.74671">
					<ele>101</ele>
					<time>0001-01-01T00:00:00Z</time>
				</trkpt>
				<trkpt lat="58.21866" lon="7.74975">
					<ele>96</ele>
					<time>0001-01-01T00:00:00Z</time>
				</trkpt>
				<trkpt lat="58.21777" lon="7.75255">
					<ele>84</ele>
					<time>0001-01-01T00:00:00Z</time>
				</trkpt>
				<trkpt lat="58.21771" lon="7.75272">
					<ele>84</ele>
					<time>0001-01-01T00:00:00Z</time>
				</trkpt>
				<trkpt lat="58.21672" lon="7.75403">
					<ele>78</ele>
					<time>0001-01-01T00:00:00Z</time>
				</trkpt>
				<trkpt lat="58.21642" lon="7.75541">
					<ele>72</ele>
					<time>0001-01-01T00:00:00Z</time>
				</trkpt>
				<trkpt lat="58.21674" lon="7.75652">
					<ele>66</ele>
					<time>0001-01-01T00:00:00Z</time>
				</trkpt>
				<trkpt lat="58.21695" lon="7.75686">
					<ele>65</ele>
					<time>0001-01-01T00:00:00Z</time>
				</trkpt>
				<trkpt lat="58.21772" lon="7.75791">
					<ele>61</ele>
					<time>0001-01-01T00:00:00Z</time>
				</trkpt>
				<trkpt lat="58.21789" lon="7.75928">
					<ele>55</ele>
					<time>0001-01-01T00:00:00Z</time>
				</trkpt>
				<trkpt lat="58.21757" lon="7.76031">
					<ele>52</ele>
					<time>0001-01-01T00:00:00Z</time>
				</trkpt>
				<trkpt lat="58.21585" lon="7.76357">
					<ele>40</ele>
					<time>0001-01-01T00:00:00Z</time>
				</trkpt>
				<trkpt lat="58.21427" lon="7.76529">
					<ele>33</ele>
					<time>0001-01-01T00:00:00Z</time>
				</trkpt>
				<trkpt lat="58.21387" lon="7.76557">
					<ele>32</ele>
					<time>0001-01-01T00:00:00Z</time>
				</trkpt>
				<trkpt lat="58.21197" lon="7.76605">
					<ele>29</ele>
					<time>0001-01-01T00:00:00Z</time>
				</trkpt>
				<trkpt lat="58.21170" lon="7.76626">
					<ele>28</ele>
					<time>0001-01-01T00:00:00Z</time>
				</trkpt>
				<trkpt lat="58.21126" lon="7.76738">
					<ele>28</ele>
					<time>0001-01-01T00:00:00Z</time>
				</trkpt>
				<trkpt lat="58.21121" lon="7.76754">
					<ele>28</ele>
					<time>0001-01-01T00:00:00Z</time>
				</trkpt>
				<trkpt lat="58.21110" lon="7.76826">
					<ele>28</ele>
					<time>0001-01-01T00:00:00Z</time>
				</trkpt>
				<trkpt lat="58.21117" lon="7.77059">
					<ele>27</ele>
					<time>0001-01-01T00:00:00Z</time>
				</trkpt>
				<trkpt lat="58.21121" lon="7.77129">
					<ele>27</ele>
					<time>0001-01-01T00:00:00Z</time>
				</trkpt>
				<trkpt lat="58.21121" lon="7.77165">
					<ele>26</ele>
					<time>0001-01-01T00:00:00Z</time>
				</trkpt>
				<trkpt lat="58.21075" lon="7.77240">
					<ele>24</ele>
					<time>0001-01-01T00:00:00Z</time>
				</trkpt>
				<trkpt lat="58.21066" lon="7.77242">
					<ele>25</ele>
					<time>0001-01-01T00:00:00Z</time>
				</trkpt>
				<trkpt lat="58.21003" lon="7.77253">
					<ele>23</ele>
					<time>0001-01-01T00:00:00Z</time>
				</trkpt>
				<trkpt lat="58.20911" lon="7.77347">
					<ele>23</ele>
					<time>0001-01-01T00:00:00Z</time>
				</trkpt>
				<trkpt lat="58.20789" lon="7.77527">
					<ele>25</ele>
					<time>0001-01-01T00:00:00Z</time>
				</trkpt>
				<trkpt lat="58.20783" lon="7.77536">
					<ele>25</ele>
					<time>0001-01-01T00:00:00Z</time>
				</trkpt>
				<trkpt lat="58.20718" lon="7.77730">
					<ele>23</ele>
					<time>0001-01-01T00:00:00Z</time>
				</trkpt>
				<trkpt lat="58.20617" lon="7.78086">
					<ele>18</ele>
					<time>0001-01-01T00:00:00Z</time>
				</trkpt>
				<trkpt lat="58.20521" lon="7.78399">
					<ele>18</ele>
					<time>0001-01-01T00:00:00Z</time>
				</trkpt>
				<trkpt lat="58.20423" lon="7.78521">
					<ele>18</ele>
					<time>0001-01-01T00:00:00Z</time>
				</trkpt>
				<trkpt lat="58.20347" lon="7.78610">
					<ele>19</ele>
					<time>0001-01-01T00:00:00Z</time>
				</trkpt>
				<trkpt lat="58.20263" lon="7.78728">
					<ele>17</ele>
					<time>0001-01-01T00:00:00Z</time>
				</trkpt>
				<trkpt lat="58.20205" lon="7.78770">
					<ele>19</ele>
					<time>0001-01-01T00:00:00Z</time>
				</trkpt>
				<trkpt lat="58.20141" lon="7.78927">
					<ele>16</ele>
					<time>0001-01-01T00:00:00Z</time>
				</trkpt>
				<trkpt lat="58.20089" lon="7.79087">
					<ele>18</ele>
					<time>0001-01-01T00:00:00Z</time>
				</trkpt>
				<trkpt lat="58.20024" lon="7.79274">
					<ele>20</ele>
					<time>0001-01-01T00:00:00Z</time>
				</trkpt>
				<trkpt lat="58.19959" lon="7.79432">
					<ele>21</ele>
					<time>0001-01-01T00:00:00Z</time>
				</trkpt>
				<trkpt lat="58.19830" lon="7.79469">
					<ele>19</ele>
					<time>0001-01-01T00:00:00Z</time>
				</trkpt>
				<trkpt lat="58.19650" lon="7.79525">
					<ele>21</ele>
					<time>0001-01-01T00:00:00Z</time>
				</trkpt>
				<trkpt lat="58.19551" lon="7.79620">
					<ele>19</ele>
					<time>0001-01-01T00:00:00Z</time>
				</trkpt>
				<trkpt lat="58.19421" lon="7.79729">
					<ele>17</ele>
					<time>0001-01-01T00:00:00Z</time>
				</trkpt>
				<trkpt lat="58.19250" lon="7.79780">
					<ele>12</ele>
					<time>0001-01-01T00:00:00Z</time>
				</trkpt>
				<trkpt lat="58.19231" lon="7.79772">
					<ele>12</ele>
					<time>0001-01-01T00:00:00Z</time>
				</trkpt>
				<trkpt lat="58.19147" lon="7.79850">
					<ele>11</ele>
					<time>0001-01-01T00:00:00Z</time>
				</trkpt>
				<trkpt lat="58.19068" lon="7.80000">
					<ele>11</ele>
					<time>0001-01-01T00:00:00Z</time>
				</trkpt>
				<trkpt lat="58.19023" lon="7.80191">
					<ele>10</ele>
					<time>0001-01-01T00:00:00Z</time>
				</trkpt>
				<trkpt lat="58.18957" lon="7.80309">
					<ele>11</ele>
					<time>0001-01-01T00:00:00Z</time>
				</trkpt>
				<trkpt lat="58.18844" lon="7.80379">
					<ele>10</ele>
					<time>0001-01-01T00:00:00Z</time>
				</trkpt>
				<trkpt lat="58.18666" lon="7.80460">
					<ele>11</ele>
					<time>0001-01-01T00:00:00Z</time>
				</trkpt>
				<trkpt lat="58.18536" lon="7.80520">
					<ele>13</ele>
					<time>0001-01-01T00:00:00Z</time>
				</trkpt>
				<trkpt lat="58.18419" lon="7.80593">
					<ele>14</ele>
					<time>0001-01-01T00:00:00Z</time>
				</trkpt>
				<trkpt lat="58.18274" lon="7.80734">
					<ele>13</ele>
					<time>0001-01-01T00:00:00Z</time>
				</trkpt>
				<trkpt lat="58.18198" lon="7.80913">
					<ele>13</ele>
					<time>0001-01-01T00:00:00Z</time>
				</trkpt>
				<trkpt lat="58.18101" lon="7.81196">
					<ele>10</ele>
					<time>0001-01-01T00:00:00Z</time>
				</trkpt>
				<trkpt lat="58.18037" lon="7.81313">
					<ele>8</ele>
					<time>0001-01-01T00:00:00Z</time>
				</trkpt>
				<trkpt lat="58.18015" lon="7.81421">
					<ele>8</ele>
					<time>0001-01-01T00:00:00Z</time>
				</trkpt>
				<trkpt lat="58.18004" lon="7.81460">
					<ele>8</ele>
					<time>0001-01-01T00:00:00Z</time>
				</trkpt>
				<trkpt lat="58.17929" lon="7.81562">
					<ele>7</ele>
					<time>0001-01-01T00:00:00Z</time>
				</trkpt>
				<trkpt lat="58.17914" lon="7.81569">
					<ele>7</ele>
					<time>0001-01-01T00:00:00Z</time>
				</trkpt>
				<trkpt lat="58.17799" lon="7.81540">
					<ele>8</ele>
					<time>0001-01-01T00:00:00Z</time>
				</trkpt>
				<trkpt lat="58.17699" lon="7.81548">
					<ele>9</ele>
					<time>0001-01-01T00:00:00Z</time>
				</trkpt>
				<trkpt lat="58.17567" lon="7.81818">
					<ele>9</ele>
					<time>0001-01-01T00:00:00Z</time>
				</trkpt>
				<trkpt lat="58.17473" lon="7.82024">
					<ele>11</ele>
					<time>0001-01-01T00:00:00Z</time>
				</trkpt>
				<trkpt lat="58.17408" lon="7.82262">
					<ele>12</ele>
					<time>0001-01-01T00:00:00Z</time>
				</trkpt>
				<trkpt lat="58.17328" lon="7.82616">
					<ele>15</ele>
					<time>0001-01-01T00:00:00Z</time>
				</trkpt>
				<trkpt lat="58.17278" lon="7.82745">
					<ele>17</ele>
					<time>0001-01-01T00:00:00Z</time>
				</trkpt>
				<trkpt lat="58.17252" lon="7.82781">
					<ele>16</ele>
					<time>0001-01-01T00:00:00Z</time>
				</trkpt>
				<trkpt lat="58.17166" lon="7.82851">
					<ele>16</ele>
					<time>0001-01-01T00:00:00Z</time>
				</trkpt>
				<trkpt lat="58.17141" lon="7.82905">
					<ele>15</ele>
					<time>0001-01-01T00:00:00Z</time>
				</trkpt>
				<trkpt lat="58.17064" lon="7.83186">
					<ele>12</ele>
					<time>0001-01-01T00:00:00Z</time>
				</trkpt>
				<trkpt lat="58.17012" lon="7.83364">
					<ele>12</ele>
					<time>0001-01-01T00:00:00Z</time>
				</trkpt>
				<trkpt lat="58.16960" lon="7.83403">
					<ele>12</ele>
					<time>0001-01-01T00:00:00Z</time>
				</trkpt>
				<trkpt lat="58.16847" lon="7.83310">
					<ele>12</ele>
					<time>0001-01-01T00:00:00Z</time>
				</trkpt>
				<trkpt lat="58.16706" lon="7.83130">
					<ele>12</ele>
					<time>0001-01-01T00:00:00Z</time>
				</trkpt>
				<trkpt lat="58.16613" lon="7.83087">
					<ele>12</ele>
					<time>0001-01-01T00:00:00Z</time>
				</trkpt>
				<trkpt lat="58.16462" lon="7.83074">
					<ele>15</ele>
					<time>0001-01-01T00:00:00Z</time>
				</trkpt>
				<trkpt lat="58.16339" lon="7.83048">
					<ele>15</ele>
					<time>0001-01-01T00:00:00Z</time>
				</trkpt>
				<trkpt lat="58.16183" lon="7.83086">
					<ele>16</ele>
					<time>0001-01-01T00:00:00Z</time>
				</trkpt>
				<trkpt lat="58.16063" lon="7.83187">
					<ele>17</ele>
					<time>0001-01-01T00:00:00Z</time>
				</trkpt>
				<trkpt lat="58.15907" lon="7.83340">
					<ele>15</ele>
					<time>0001-01-01T00:00:00Z</time>
				</trkpt>
				<trkpt lat="58.15873" lon="7.83355">
					<ele>14</ele>
					<time>0001-01-01T00:00:00Z</time>
				</trkpt>
				<trkpt lat="58.15807" lon="7.83360">
					<ele>14</ele>
					<time>0001-01-01T00:00:00Z</time>
				</trkpt>
				<trkpt lat="58.15800" lon="7.83367">
					<ele>14</ele>
					<time>0001-01-01T00:00:00Z</time>
				</trkpt>
				<trkpt lat="58.15699" lon="7.83452">
					<ele>16</ele>
					<time>0001-01-01T00:00:00Z</time>
				</trkpt>
				<trkpt lat="58.15565" lon="7.83543">
					<ele>15</ele>
					<time>0001-01-01T00:00:00Z</time>
				</trkpt>
				<trkpt lat="58.15545" lon="7.83559">
					<ele>15</ele>
					<time>0001-01-01T00:00:00Z</time>
				</trkpt>
				<trkpt lat="58.15517" lon="7.83566">
					<ele>15</ele>
					<time>0001-01-01T00:00:00Z</time>
				</trkpt>
				<trkpt lat="58.15406" lon="7.83650">
					<ele>16</ele>
					<time>0001-01-01T00:00:00Z</time>
				</trkpt>
				<trkpt lat="58.15273" lon="7.83741">
					<ele>15</ele>
					<time>0001-01-01T00:00:00Z</time>
				</trkpt>
				<trkpt lat="58.15215" lon="7.83787">
					<ele>13</ele>
					<time>0001-01-01T00:00:00Z</time>
				</trkpt>
				<trkpt lat="58.15187" lon="7.83829">
					<ele>12</ele>
					<time>0001-01-01T00:00:00Z</time>
				</trkpt>
				<trkpt lat="58.15104" lon="7.84050">
					<ele>10</ele>
					<time>0001-01-01T00:00:00Z</time>
				</trkpt>
				<trkpt lat="58.15009" lon="7.84285">
					<ele>11</ele>
					<time>0001-01-01T00:00:00Z</time>
				</trkpt>
				<trkpt lat="58.14900" lon="7.84388">
					<ele>10</ele>
					<time>0001-01-01T00:00:00Z</time>
				</trkpt>
				<trkpt lat="58.14750" lon="7.84465">
					<ele>12</ele>
					<time>0001-01-01T00:00:00Z</time>
				</trkpt>
				<trkpt lat="58.14610" lon="7.84531">
					<ele>10</ele>
					<time>0001-01-01T00:00:00Z</time>
				</trkpt>
				<trkpt lat="58.14499" lon="7.84661">
					<ele>10</ele>
					<time>0001-01-01T00:00:00Z</time>
				</trkpt>
				<trkpt lat="58.14407" lon="7.84821">
					<ele>11</ele>
					<time>0001-01-01T00:00:00Z</time>
				</trkpt>
				<trkpt lat="58.14353" lon="7.85013">
					<ele>9</ele>
					<time>0001-01-01T00:00:00Z</time>
				</trkpt>
				<trkpt lat="58.14333" lon="7.85058">
					<ele>10</ele>
					<time>0001-01-01T00:00:00Z</time>
				</trkpt>
				<trkpt lat="58.14260" lon="7.85109">
					<ele>10</ele>
					<time>0001-01-01T00:00:00Z</time>
				</trkpt>
				<trkpt lat="58.14173" lon="7.85153">
					<ele>11</ele>
					<time>0001-01-01T00:00:00Z</time>
				</trkpt>
				<trkpt lat="58.14128" lon="7.85216">
					<ele>12</ele>
					<time>0001-01-01T00:00:00Z</time>
				</trkpt>
				<trkpt lat="58.14101" lon="7.85227">
					<ele>11</ele>
					<time>0001-01-01T00:00:00Z</time>
				</trkpt>
				<trkpt lat="58.14036" lon="7.85257">
					<ele>12</ele>
					<time>0001-01-01T00:00:00Z</time>
				</trkpt>
				<trkpt lat="58.14010" lon="7.85298">
					<ele>12</ele>
					<time>0001-01-01T00:00:00Z</time>
				</trkpt>
				<trkpt lat="58.13950" lon="7.85497">
					<ele>13</ele>
					<time>0001-01-01T00:00:00Z</time>
				</trkpt>
				<trkpt lat="58.13924" lon="7.85577">
					<ele>13</ele>
					<time>0001-01-01T00:00:00Z</time>
				</trkpt>
				<trkpt lat="58.13925" lon="7.85642">
					<ele>13</ele>
					<time>0001-01-01T00:00:00Z</time>
				</trkpt>
				<trkpt lat="58.13961" lon="7.85800">
					<ele>16</ele>
					<time>0001-01-01T00:00:00Z</time>
				</trkpt>
				<trkpt lat="58.13989" lon="7.85910">
					<ele>16</ele>
					<time>0001-01-01T00:00:00Z</time>
				</trkpt>
				<trkpt lat="58.14077" lon="7.86014">
					<ele>16</ele>
					<time>0001-01-01T00:00:00Z</time>
				</trkpt>
				<trkpt lat="58.14215" lon="7.86164">
					<ele>16</ele>
					<time>0001-01-01T00:00:00Z</time>
				</trkpt>
				<trkpt lat="58.14323" lon="7.86304">
					<ele>17</ele>
					<time>0001-01-01T00:00:00Z</time>
				</trkpt>
				<trkpt lat="58.14419" lon="7.86485">
					<ele>16</ele>
					<time>0001-01-01T00:00:00Z</time>
				</trkpt>
				<trkpt lat="58.14482" lon="7.86649">
					<ele>15</ele>
					<time>0001-01-01T00:00:00Z</time>
				</trkpt>
				<trkpt lat="58.14500" lon="7.86808">
					<ele>17</ele>
					<time>0001-01-01T00:00:00Z</time>
				</trkpt>
				<trkpt lat="58.14513" lon="7.86941">
					<ele>20</ele>
					<time>0001-01-01T00:00:00Z</time>
				</trkpt>
				<trkpt lat="58.14524" lon="7.87050">
					<ele>24</ele>
					<time>0001-01-01T00:00:00Z</time>
				</trkpt>
				<trkpt lat="58.14535" lon="7.87139">
					<ele>26</ele>
					<time>0001-01-01T00:00:00Z</time>
				</trkpt>
				<trkpt lat="58.14549" lon="7.87274">
					<ele>28</ele>
					<time>0001-01-01T00:00:00Z</time>
				</trkpt>
				<trkpt lat="58.14549" lon="7.87376">
					<ele>31</ele>
					<time>0001-01-01T00:00:00Z</time>
				</trkpt>
				<trkpt lat="58.14531" lon="7.87538">
					<ele>39</ele>
					<time>0001-01-01T00:00:00Z</time>
				</trkpt>
				<trkpt lat="58.14508" lon="7.87669">
					<ele>43</ele>
					<time>0001-01-01T00:00:00Z</time>
				</trkpt>
				<trkpt lat="58.14485" lon="7.87798">
					<ele>48</ele>
					<time>0001-01-01T00:00:00Z</time>
				</trkpt>
				<trkpt lat="58.14461" lon="7.87971">
					<ele>51</ele>
					<time>0001-01-01T00:00:00Z</time>
				</trkpt>
				<trkpt lat="58.14455" lon="7.88126">
					<ele>53</ele>
					<time>0001-01-01T00:00:00Z</time>
				</trkpt>
				<trkpt lat="58.14462" lon="7.88298">
					<ele>56</ele>
					<time>0001-01-01T00:00:00Z</time>
				</trkpt>
				<trkpt lat="58.14470" lon="7.88499">
					<ele>62</ele>
					<time>0001-01-01T00:00:00Z</time>
				</trkpt>
				<trkpt lat="58.14478" lon="7.88687">
					<ele>67</ele>
					<time>0001-01-01T00:00:00Z</time>
				</trkpt>
				<trkpt lat="58.14478" lon="7.88724">
					<ele>68</ele>
					<time>0001-01-01T00:00:00Z</time>
				</trkpt>
				<trkpt lat="58.14476" lon="7.88750">
					<ele>69</ele>
					<time>0001-01-01T00:00:00Z</time>
				</trkpt>
				<trkpt lat="58.14484" lon="7.88926">
					<ele>72</ele>
					<time>0001-01-01T00:00:00Z</time>
				</trkpt>
				<trkpt lat="58.14483" lon="7.89108">
					<ele>74</ele>
					<time>0001-01-01T00:00:00Z</time>
				</trkpt>
				<trkpt lat="58.14470" lon="7.89287">
					<ele>81</ele>
					<time>0001-01-01T00:00:00Z</time>
				</trkpt>
				<trkpt lat="58.14468" lon="7.89323">
					<ele>82</ele>
					<time>0001-01-01T00:00:00Z</time>
				</trkpt>
				<trkpt lat="58.14477" lon="7.89448">
					<ele>83</ele>
					<time>0001-01-01T00:00:00Z</time>
				</trkpt>
				<trkpt lat="58.14468" lon="7.89486">
					<ele>83</ele>
					<time>0001-01-01T00:00:00Z</time>
				</trkpt>
				<trkpt lat="58.14442" lon="7.89574">
					<ele>84</ele>
					<time>0001-01-01T00:00:00Z</time>
				</trkpt>
				<trkpt lat="58.14433" lon="7.89579">
					<ele>85</ele>
					<time>0001-01-01T00:00:00Z</time>
				</trkpt>
				<trkpt lat="58.14425" lon="7.89583">
					<ele>86</ele>
					<time>0001-01-01T00:00:00Z</time>
				</trkpt>
				<trkpt lat="58.14406" lon="7.89590">
					<ele>86</ele>
					<time>0001-01-01T00:00:00Z</time>
				</trkpt>
				<trkpt lat="58.14397" lon="7.89595">
					<ele>87</ele>
					<time>0001-01-01T00:00:00Z</time>
				</trkpt>
				<trkpt lat="58.14380" lon="7.89622">
					<ele>89</ele>
					<time>0001-01-01T00:00:00Z</time>
				</trkpt>
				<trkpt lat="58.14314" lon="7.89823">
					<ele>91</ele>
					<time>0001-01-01T00:00:00Z</time>
				</trkpt>
				<trkpt lat="58.14285" lon="7.90030">
					<ele>92</ele>
					<time>0001-01-01T00:00:00Z</time>
				</trkpt>
				<trkpt lat="58.14275" lon="7.90205">
					<ele>90</ele>
					<time>0001-01-01T00:00:00Z</time>
				</trkpt>
				<trkpt lat="58.14285" lon="7.90430">
					<ele>87</ele>
					<time>0001-01-01T00:00:00Z</time>
				</trkpt>
				<trkpt lat="58.14327" lon="7.90629">
					<ele>84</ele>
					<time>0001-01-01T00:00:00Z</time>
				</trkpt>
				<trkpt lat="58.14411" lon="7.90841">
					<ele>80</ele>
					<time>0001-01-01T00:00:00Z</time>
				</trkpt>
				<trkpt lat="58.14461" lon="7.91093">
					<ele>78</ele>
					<time>0001-01-01T00:00:00Z</time>
				</trkpt>
				<trkpt lat="58.14476" lon="7.91143">
					<ele>79</ele>
					<time>0001-01-01T00:00:00Z</time>
				</trkpt>
				<trkpt lat="58.14482" lon="7.91192">
					<ele>80</ele>
					<time>0001-01-01T00:00:00Z</time>
				</trkpt>
				<trkpt lat="58.14502" lon="7.91313">
					<ele>81</ele>
					<time>0001-01-01T00:00:00Z</time>
				</trkpt>
				<trkpt lat="58.14515" lon="7.91360">
					<ele>81</ele>
					<time>0001-01-01T00:00:00Z</time>
				</trkpt>
				<trkpt lat="58.14524" lon="7.91537">
					<ele>83</ele>
					<time>0001-01-01T00:00:00Z</time>
				</trkpt>
				<trkpt lat="58.14525" lon="7.91691">
					<ele>84</ele>
					<time>0001-01-01T00:00:00Z</time>
				</trkpt>
				<trkpt lat="58.14559" lon="7.91804">
					<ele>82</ele>
					<time>0001-01-01T00:00:00Z</time>
				</trkpt>
				<trkpt lat="58.14565" lon="7.91862">
					<ele>81</ele>
					<time>0001-01-01T00:00:00Z</time>
				</trkpt>
				<trkpt lat="58.14536" lon="7.92014">
					<ele>82</ele>
					<time>0001-01-01T00:00:00Z</time>
				</trkpt>
				<trkpt lat="58.14536" lon="7.92118">
					<ele>82</ele>
					<time>0001-01-01T00:00:00Z</time>
				</trkpt>
				<trkpt lat="58.14526" lon="7.92176">
					<ele>81</ele>
					<time>0001-01-01T00:00:00Z</time>
				</trkpt>
				<trkpt lat="58.14481" lon="7.92347">
					<ele>80</ele>
					<time>0001-01-01T00:00:00Z</time>
				</trkpt>
				<trkpt lat="58.14434" lon="7.92669">
					<ele>79</ele>
					<time>0001-01-01T00:00:00Z</time>
				</trkpt>
				<trkpt lat="58.14421" lon="7.92911">
					<ele>81</ele>
					<time>0001-01-01T00:00:00Z</time>
				</trkpt>
				<trkpt lat="58.14401" lon="7.93132">
					<ele>82</ele>
					<time>0001-01-01T00:00:00Z</time>
				</trkpt>
				<trkpt lat="58.14368" lon="7.93313">
					<ele>81</ele>
					<time>0001-01-01T00:00:00Z</time>
				</trkpt>
				<trkpt lat="58.14269" lon="7.93549">
					<ele>78</ele>
					<time>0001-01-01T00:00:00Z</time>
				</trkpt>
				<trkpt lat="58.14232" lon="7.93769">
					<ele>75</ele>
					<time>0001-01-01T00:00:00Z</time>
				</trkpt>
				<trkpt lat="58.14244" lon="7.93809">
					<ele>75</ele>
					<time>0001-01-01T00:00:00Z</time>
				</trkpt>
				<trkpt lat="58.14236" lon="7.93870">
					<ele>73</ele>
					<time>0001-01-01T00:00:00Z</time>
				</trkpt>
				<trkpt lat="58.14199" lon="7.93965">
					<ele>70</ele>
					<time>0001-01-01T00:00:00Z</time>
				</trkpt>
				<trkpt lat="58.14156" lon="7.93913">
					<ele>69</ele>
					<time>0001-01-01T00:00:00Z</time>
				</trkpt>
				<trkpt lat="58.14124" lon="7.93929">
					<ele>68</ele>
					<time>0001-01-01T00:00:00Z</time>
				</trkpt>
				<trkpt lat="58.14096" lon="7.93988">
					<ele>66</ele>
					<time>0001-01-01T00:00:00Z</time>
				</trkpt>
				<trkpt lat="58.14042" lon="7.94245">
					<ele>54</ele>
					<time>0001-01-01T00:00:00Z</time>
				</trkpt>
				<trkpt lat="58.13958" lon="7.94393">
					<ele>48</ele>
					<time>0001-01-01T00:00:00Z</time>
				</trkpt>
				<trkpt lat="58.13840" lon="7.94661">
					<ele>38</ele>
					<time>0001-01-01T00:00:00Z</time>
				</trkpt>
				<trkpt lat="58.13820" lon="7.94724">
					<ele>36</ele>
					<time>0001-01-01T00:00:00Z</time>
				</trkpt>
				<trkpt lat="58.13795" lon="7.94941">
					<ele>31</ele>
					<time>0001-01-01T00:00:00Z</time>
				</trkpt>
				<trkpt lat="58.13804" lon="7.95113">
					<ele>28</ele>
					<time>0001-01-01T00:00:00Z</time>
				</trkpt>
				<trkpt lat="58.13804" lon="7.95183">
					<ele>26</ele>
					<time>0001-01-01T00:00:00Z</time>
				</trkpt>
				<trkpt lat="58.13801" lon="7.95288">
					<ele>25</ele>
					<time>0001-01-01T00:00:00Z</time>
				</trkpt>
				<trkpt lat="58.13813" lon="7.95333">
					<ele>24</ele>
					<time>0001-01-01T00:00:00Z</time>
				</trkpt>
				<trkpt lat="58.13756" lon="7.95424">
					<ele>25</ele>
					<time>0001-01-01T00:00:00Z</time>
				</trkpt>
				<trkpt lat="58.13752" lon="7.95451">
					<ele>25</ele>
					<time>0001-01-01T00:00:00Z</time>
				</trkpt>
				<trkpt lat="58.13698" lon="7.95888">
					<ele>17</ele>
					<time>0001-01-01T00:00:00Z</time>
				</trkpt>
				<trkpt lat="58.13681" lon="7.95936">
					<ele>17</ele>
					<time>0001-01-01T00:00:00Z</time>
				</trkpt>
				<trkpt lat="58.13668" lon="7.96065">
					<ele>14</ele>
					<time>0001-01-01T00:00:00Z</time>
				</trkpt>
				<trkpt lat="58.13690" lon="7.96141">
					<ele>12</ele>
					<time>0001-01-01T00:00:00Z</time>
				</trkpt>
				<trkpt lat="58.13677" lon="7.96135">
					<ele>11</ele>
					<time>0001-01-01T00:00:00Z</time>
				</trkpt>
				<trkpt lat="58.13672" lon="7.96142">
					<ele>12</ele>
					<time>0001-01-01T00:00:00Z</time>
				</trkpt>
				<trkpt lat="58.13617" lon="7.96227">
					<ele>12</ele>
					<time>0001-01-01T00:00:00Z</time>
				</trkpt>
				<trkpt lat="58.13621" lon="7.96312">
					<ele>11</ele>
					<time>0001-01-01T00:00:00Z</time>
				</trkpt>
				<trkpt lat="58.13614" lon="7.96349">
					<ele>12</ele>
					<time>0001-01-01T00:00:00Z</time>
				</trkpt>
				<trkpt lat="58.13643" lon="7.96346">
					<ele>11</ele>
					<time>0001-01-01T00:00:00Z</time>
				</trkpt>
				<trkpt lat="58.13670" lon="7.96449">
					<ele>8</ele>
					<time>0001-01-01T00:00:00Z</time>
				</trkpt>
				<trkpt lat="58.13743" lon="7.96591">
					<ele>7</ele>
					<time>0001-01-01T00:00:00Z</time>
				</trkpt>
				<trkpt lat="58.13769" lon="7.96699">
					<ele>9</ele>
					<time>0001-01-01T00:00:00Z</time>
				</trkpt>
				<trkpt lat="58.13794" lon="7.96743">
					<ele>9</ele>
					<time>0001-01-01T00:00:00Z</time>
				</trkpt>
				<trkpt lat="58.13804" lon="7.96749">
					<ele>9</ele>
					<time>0001-01-01T00:00:00Z</time>
				</trkpt>
				<trkpt lat="58.13831" lon="7.96774">
					<ele>10</ele>
					<time>0001-01-01T00:00:00Z</time>
				</trkpt>
				<trkpt lat="58.13870" lon="7.96764">
					<ele>10</ele>
					<time>0001-01-01T00:00:00Z</time>
				</trkpt>
				<trkpt lat="58.13948" lon="7.96689">
					<ele>11</ele>
					<time>0001-01-01T00:00:00Z</time>
				</trkpt>
				<trkpt lat="58.13976" lon="7.96695">
					<ele>12</ele>
					<time>0001-01-01T00:00:00Z</time>
				</trkpt>
				<trkpt lat="58.14020" lon="7.96728">
					<ele>14</ele>
					<time>0001-01-01T00:00:00Z</time>
				</trkpt>
				<trkpt lat="58.14065" lon="7.96839">
					<ele>16</ele>
					<time>0001-01-01T00:00:00Z</time>
				</trkpt>
				<trkpt lat="58.14072" lon="7.96864">
					<ele>17</ele>
					<time>0001-01-01T00:00:00Z</time>
				</trkpt>
				<trkpt lat="58.14093" lon="7.97021">
					<ele>17</ele>
					<time>0001-01-01T00:00:00Z</time>
				</trkpt>
				<trkpt lat="58.14100" lon="7.97285">
					<ele>16</ele>
					<time>0001-01-01T00:00:00Z</time>
				</trkpt>
				<trkpt lat="58.14100" lon="7.97348">
					<ele>15</ele>
					<time>0001-01-01T00:00:00Z</time>
				</trkpt>
				<trkpt lat="58.14098" lon="7.97550">
					<ele>14</ele>
					<time>0001-01-01T00:00:00Z</time>
				</trkpt>
				<trkpt lat="58.14117" lon="7.97616">
					<ele>14</ele>
					<time>0001-01-01T00:00:00Z</time>
				</trkpt>
				<trkpt lat="58.14117" lon="7.97630">
					<ele>14</ele>
					<time>0001-01-01T00:00:00Z</time>
				</trkpt>
				<trkpt lat="58.14121" lon="7.97762">
					<ele>14</ele>
					<time>0001-01-01T00:00:00Z</time>
				</trkpt>
				<trkpt lat="58.14135" lon="7.97858">
					<ele>16</ele>
					<time>0001-01-01T00:00:00Z</time>
				</trkpt>
				<trkpt lat="58.14136" lon="7.97865">
					<ele>16</ele>
					<time>0001-01-01T00:00:00Z</time>
				</trkpt>
				<trkpt lat="58.14161" lon="7.97963">
					<ele>17</ele>
					<time>0001-01-01T00:00:00Z</time>
				</trkpt>
				<trkpt lat="58.14226" lon="7.98105">
					<ele>19</ele>
					<time>0001-01-01T00:00:00Z</time>
				</trkpt>
				<trkpt lat="58.14315" lon="7.98108">
					<ele>15</ele>
					<time>0001-01-01T00:00:00Z</time>
				</trkpt>
				<trkpt lat="58.14344" lon="7.98105">
					<ele>15</ele>
					<time>0001-01-01T00:00:00Z</time>
				</trkpt>
				<trkpt lat="58.14376" lon="7.98134">
					<ele>15</ele>
					<time>0001-01-01T00:00:00Z</time>
				</trkpt>
				<trkpt lat="58.14490" lon="7.98218">
					<ele>9</ele>
					<time>0001-01-01T00:00:00Z</time>
				</trkpt>
				<trkpt lat="58.14518" lon="7.98231">
					<ele>8</ele>
					<time>0001-01-01T00:00:00Z</time>
				</trkpt>
				<trkpt lat="58.14546" lon="7.98253">
					<ele>9</ele>
					<time>0001-01-01T00:00:00Z</time>
				</trkpt>
				<trkpt lat="58.14644" lon="7.98400">
					<ele>7</ele>
					<time>0001-01-01T00:00:00Z</time>
				</trkpt>
				<trkpt lat="58.14713" lon="7.98574">
					<ele>5</ele>
					<time>0001-01-01T00:00:00Z</time>
				</trkpt>
				<trkpt lat="58.14716" lon="7.98589">
					<ele>4</ele>
					<time>0001-01-01T00:00:00Z</time>
				</trkpt>
				<trkpt lat="58.14724" lon="7.98620">
					<ele>4</ele>
					<time>0001-01-01T00:00:00Z</time>
				</trkpt>
				<trkpt lat="58.14631" lon="7.98805">
					<ele>4</ele>
					<time>0001-01-01T00:00:00Z</time>
				</trkpt>
				<trkpt lat="58.14597" lon="7.98876">
					<ele>4</ele>
					<time>0001-01-01T00:00:00Z</time>
				</trkpt>
				<trkpt lat="58.14593" lon="7.98885">
					<ele>4</ele>
					<time>0001-01-01T00:00:00Z</time>
				</trkpt>
				<trkpt lat="58.14583" lon="7.98893">
					<ele>12</ele>
					<time>0001-01-01T00:00:00Z</time>
				</trkpt>
				<trkpt lat="58.14585" lon="7.98928">
					<ele>10</ele>
					<time>0001-01-01T00:00:00Z</time>
				</trkpt>
				<trkpt lat="58.14622" lon="7.99006">
					<ele>11</ele>
					<time>0001-01-01T00:00:00Z</time>
				</trkpt>
				<trkpt lat="58.14668" lon="7.99096">
					<ele>12</ele>
					<time>0001-01-01T00:00:00Z</time>
				</trkpt>
				<trkpt lat="58.14796" lon="7.99331">
					<ele>12</ele>
					<time>0001-01-01T00:00:00Z</time>
				</trkpt>
				<trkpt lat="58.14844" lon="7.99419">
					<ele>12</ele>
					<time>0001-01-01T00:00:00Z</time>
				</trkpt>
				<trkpt lat="58.14867" lon="7.99418">
					<ele>12</ele>
					<time>0001-01-01T00:00:00Z</time>
				</trkpt>
				<trkpt lat="58.14889" lon="7.99377">
					<ele>11</ele>
					<time>0001-01-01T00:00:00Z</time>
				</trkpt>
				<trkpt lat="58.14914" lon="7.99363">
					<ele>11</ele>
					<time>0001-01-01T00:00:00Z</time>
				</trkpt>
				<trkpt lat="58.14947" lon="7.99426">
					<ele>11</ele>
					<time>0001-01-01T00:00:00Z</time>
				</trkpt>
				<trkpt lat="58.14981" lon="7.99488">
					<ele>12</ele>
					<time>0001-01-01T00:00:00Z</time>
				</trkpt>
				<trkpt lat="58.15045" lon="7.99602">
					<ele>14</ele>
					<time>0001-01-01T00:00:00Z</time>
				</trkpt>
				<trkpt lat="58.15061" lon="7.99632">
					<ele>13</ele>
					<time>0001-01-01T00:00:00Z</time>
				</trkpt>
				<trkpt lat="58.15074" lon="7.99646">
					<ele>12</ele>
					<time>0001-01-01T00:00:00Z</time>
				</trkpt>
				<trkpt lat="58.15065" lon="7.99632">
					<ele>12</ele>
					<time>0001-01-01T00:00:00Z</time>
				</trkpt>
				<trkpt lat="58.15052" lon="7.99611">
					<ele>11</ele>
					<time>0001-01-01T00:00:00Z</time>
				</trkpt>
				<trkpt lat="58.15039" lon="7.99592">
					<ele>12</ele>
					<time>0001-01-01T00:00:00Z</time>
				</trkpt>
				<trkpt lat="58.15065" lon="7.99677">
					<ele>12</ele>
					<time>0001-01-01T00:00:00Z</time>
				</trkpt>
				<trkpt lat="58.15062" lon="7.99672">
					<ele>10</ele>
					<time>0001-01-01T00:00:00Z</time>
				</trkpt>
		</trkseg>
	</trk>
</gpx>
